Wetterdaten: Mittwoch, 31.08.2022
Datum Zeit Temp. Aussen Temp. o. S. Temp +5cm Feuchte Auss Luftdruck Regen Sonnenschein Regendauer Solar Windben Empfang
31.08.2022 00:00 21,0 C 20,0 C 16,7 C 61 % 1019,9 hPa 0,0 l/m 0 min 0 min 0 W/m 6,4 km/h (2 Bft) 95,74 %
31.08.2022 00:02 20,9 C 20,0 C 16,7 C 61 % 1020,0 hPa 0,0 l/m 0 min 0 min 0 W/m 6,4 km/h (2 Bft) 95,00 %
31.08.2022 00:04 20,9 C 20,0 C 16,7 C 61 % 1020,0 hPa 0,0 l/m 0 min 0 min 0 W/m 6,4 km/h (2 Bft) 95,74 %
31.08.2022 00:08 20,9 C 20,0 C 16,7 C 61 % 1020,0 hPa 0,0 l/m 0 min 0 min 0 W/m 9,7 km/h (2 Bft) 97,92 %
31.08.2022 00:12 20,9 C 20,0 C 16,7 C 61 % 1020,0 hPa 0,0 l/m 0 min 0 min 0 W/m 6,4 km/h (2 Bft) 100,00 %
31.08.2022 00:14 20,9 C 20,0 C 16,7 C 61 % 1020,0 hPa 0,0 l/m 0 min 0 min 0 W/m 16,1 km/h (3 Bft) 95,74 %
31.08.2022 00:16 20,9 C 20,0 C 16,7 C 61 % 1020,0 hPa 0,0 l/m 0 min 0 min 0 W/m 6,4 km/h (2 Bft) 91,49 %
31.08.2022 00:18 20,9 C 20,0 C 16,7 C 61 % 1020,0 hPa 0,0 l/m 0 min 0 min 0 W/m 12,9 km/h (3 Bft) 95,74 %
31.08.2022 00:20 20,9 C 20,0 C 16,7 C 61 % 1020,0 hPa 0,0 l/m 0 min 0 min 0 W/m 6,4 km/h (2 Bft) 95,74 %
31.08.2022 00:22 21,0 C 20,0 C 16,7 C 61 % 1020,0 hPa 0,0 l/m 0 min 0 min 0 W/m 16,1 km/h (3 Bft) 93,48 %
31.08.2022 00:24 21,0 C 20,0 C 16,7 C 60 % 1020,0 hPa 0,0 l/m 0 min 0 min 0 W/m 12,9 km/h (3 Bft) 93,62 %
31.08.2022 00:26 21,0 C 20,0 C 16,7 C 61 % 1020,1 hPa 0,0 l/m 0 min 0 min 0 W/m 6,4 km/h (2 Bft) 93,62 %
31.08.2022 00:28 21,0 C 20,0 C 16,7 C 60 % 1020,0 hPa 0,0 l/m 0 min 0 min 0 W/m 12,9 km/h (3 Bft) 93,62 %
31.08.2022 00:30 21,0 C 20,0 C 16,7 C 60 % 1020,0 hPa 0,0 l/m 0 min 0 min 0 W/m 9,7 km/h (2 Bft) 93,62 %
31.08.2022 00:32 21,0 C 20,0 C 16,7 C 61 % 1020,0 hPa 0,0 l/m 0 min 0 min 0 W/m 9,7 km/h (2 Bft) 91,67 %
31.08.2022 00:34 21,0 C 20,0 C 16,7 C 60 % 1020,0 hPa 0,0 l/m 0 min 0 min 0 W/m 16,1 km/h (3 Bft) 91,30 %
31.08.2022 00:36 20,9 C 20,0 C 16,7 C 60 % 1020,0 hPa 0,0 l/m 0 min 0 min 0 W/m 9,7 km/h (2 Bft) 91,49 %
31.08.2022 00:38 20,9 C 20,0 C 16,7 C 61 % 1019,9 hPa 0,0 l/m 0 min 0 min 0 W/m 6,4 km/h (2 Bft) 93,62 %
31.08.2022 00:40 20,9 C 20,0 C 16,7 C 61 % 1020,1 hPa 0,0 l/m 0 min 0 min 0 W/m 16,1 km/h (3 Bft) 93,62 %
31.08.2022 00:42 20,9 C 20,0 C 16,1 C 61 % 1020,0 hPa 0,0 l/m 0 min 0 min 0 W/m 12,9 km/h (3 Bft) 91,49 %
31.08.2022 00:44 20,9 C 20,0 C 16,1 C 61 % 1020,0 hPa 0,0 l/m 0 min 0 min 0 W/m 9,7 km/h (2 Bft) 93,62 %
31.08.2022 00:46 20,9 C 20,0 C 16,1 C 61 % 1020,0 hPa 0,0 l/m 0 min 0 min 0 W/m 9,7 km/h (2 Bft) 93,48 %
31.08.2022 00:48 20,8 C 20,0 C 16,1 C 60 % 1020,0 hPa 0,0 l/m 0 min 0 min 0 W/m 12,9 km/h (3 Bft) 97,87 %
31.08.2022 00:50 20,8 C 20,0 C 16,1 C 61 % 1020,1 hPa 0,0 l/m 0 min 0 min 0 W/m 19,3 km/h (3 Bft) 93,62 %
31.08.2022 00:52 20,8 C 20,0 C 16,1 C 61 % 1020,1 hPa 0,0 l/m 0 min 0 min 0 W/m 12,9 km/h (3 Bft) 95,74 %
31.08.2022 00:54 20,8 C 20,0 C 16,1 C 61 % 1020,1 hPa 0,0 l/m 0 min 0 min 0 W/m 6,4 km/h (2 Bft) 95,74 %
31.08.2022 00:56 20,8 C 20,0 C 16,1 C 60 % 1020,0 hPa 0,0 l/m 0 min 0 min 0 W/m 9,7 km/h (2 Bft) 97,87 %
31.08.2022 00:58 20,8 C 20,0 C 16,1 C 61 % 1020,0 hPa 0,0 l/m 0 min 0 min 0 W/m 9,7 km/h (2 Bft) 100,00 %
31.08.2022 01:00 20,8 C 20,0 C 16,1 C 61 % 1020,0 hPa 0,0 l/m 0 min 0 min 0 W/m 19,3 km/h (3 Bft) 100,00 %
31.08.2022 01:02 20,8 C 20,0 C 16,1 C 61 % 1020,1 hPa 0,0 l/m 0 min 0 min 0 W/m 6,4 km/h (2 Bft) 100,00 %
31.08.2022 01:04 20,8 C 19,4 C 16,1 C 61 % 1020,2 hPa 0,0 l/m 0 min 0 min 0 W/m 9,7 km/h (2 Bft) 100,00 %
31.08.2022 01:06 20,7 C 19,4 C 16,1 C 61 % 1020,2 hPa 0,0 l/m 0 min 0 min 0 W/m 9,7 km/h (2 Bft) 97,87 %
31.08.2022 01:08 20,7 C 19,4 C 16,1 C 61 % 1020,1 hPa 0,0 l/m 0 min 0 min 0 W/m 6,4 km/h (2 Bft) 97,87 %
31.08.2022 01:10 20,7 C 19,4 C 16,1 C 61 % 1020,2 hPa 0,0 l/m 0 min 0 min 0 W/m 3,2 km/h (1 Bft) 100,00 %
31.08.2022 01:12 20,7 C 19,4 C 16,1 C 61 % 1020,3 hPa 0,0 l/m 0 min 0 min 0 W/m 6,4 km/h (2 Bft) 97,87 %
31.08.2022 01:14 20,7 C 19,4 C 16,1 C 61 % 1020,3 hPa 0,0 l/m 0 min 0 min 0 W/m 3,2 km/h (1 Bft) 100,00 %
31.08.2022 01:16 20,7 C 19,4 C 16,1 C 61 % 1020,3 hPa 0,0 l/m 0 min 0 min 0 W/m 6,4 km/h (2 Bft) 97,87 %
31.08.2022 01:18 20,7 C 19,4 C 16,1 C 61 % 1020,3 hPa 0,0 l/m 0 min 0 min 0 W/m 9,7 km/h (2 Bft) 97,87 %
31.08.2022 01:20 20,6 C 19,4 C 16,1 C 61 % 1020,3 hPa 0,0 l/m 0 min 0 min 0 W/m 3,2 km/h (1 Bft) 100,00 %
31.08.2022 01:22 20,6 C 19,4 C 16,1 C 61 % 1020,4 hPa 0,0 l/m 0 min 0 min 0 W/m 3,2 km/h (1 Bft) 100,00 %
31.08.2022 01:24 20,6 C 19,4 C 16,1 C 61 % 1020,3 hPa 0,0 l/m 0 min 0 min 0 W/m 6,4 km/h (2 Bft) 100,00 %
31.08.2022 01:26 20,6 C 19,4 C 16,1 C 61 % 1020,3 hPa 0,0 l/m 0 min 0 min 0 W/m 12,9 km/h (3 Bft) 100,00 %
31.08.2022 01:28 20,6 C 19,4 C 16,1 C 61 % 1020,3 hPa 0,0 l/m 0 min 0 min 0 W/m 9,7 km/h (2 Bft) 100,00 %
31.08.2022 01:30 20,6 C 19,4 C 16,1 C 62 % 1020,3 hPa 0,0 l/m 0 min 0 min 0 W/m 6,4 km/h (2 Bft) 100,00 %
31.08.2022 01:32 20,6 C 19,4 C 16,1 C 61 % 1020,3 hPa 0,0 l/m 0 min 0 min 0 W/m 12,9 km/h (3 Bft) 97,87 %
31.08.2022 01:34 20,6 C 19,4 C 16,1 C 62 % 1020,3 hPa 0,0 l/m 0 min 0 min 0 W/m 12,9 km/h (3 Bft) 100,00 %
31.08.2022 01:36 20,6 C 19,4 C 16,1 C 61 % 1020,2 hPa 0,0 l/m 0 min 0 min 0 W/m 12,9 km/h (3 Bft) 100,00 %
31.08.2022 01:38 20,6 C 19,4 C 16,1 C 61 % 1020,2 hPa 0,0 l/m 0 min 0 min 0 W/m 12,9 km/h (3 Bft) 100,00 %
31.08.2022 01:40 20,6 C 19,4 C 16,1 C 62 % 1020,2 hPa 0,0 l/m 0 min 0 min 0 W/m 12,9 km/h (3 Bft) 100,00 %
31.08.2022 01:42 20,5 C 19,4 C 16,1 C 62 % 1020,2 hPa 0,0 l/m 0 min 0 min 0 W/m 6,4 km/h (2 Bft) 97,87 %
31.08.2022 01:44 20,5 C 19,4 C 16,1 C 62 % 1020,2 hPa 0,0 l/m 0 min 0 min 0 W/m 6,4 km/h (2 Bft) 100,00 %
31.08.2022 01:46 20,4 C 19,4 C 16,1 C 62 % 1020,2 hPa 0,0 l/m 0 min 0 min 0 W/m 6,4 km/h (2 Bft) 97,83 %
31.08.2022 01:48 20,4 C 19,4 C 15,6 C 62 % 1020,3 hPa 0,0 l/m 0 min 0 min 0 W/m 6,4 km/h (2 Bft) 100,00 %
31.08.2022 01:50 20,4 C 19,4 C 15,6 C 63 % 1020,3 hPa 0,0 l/m 0 min 0 min 0 W/m 3,2 km/h (1 Bft) 95,74 %
31.08.2022 01:52 20,4 C 18,9 C 15,6 C 62 % 1020,2 hPa 0,0 l/m 0 min 0 min 0 W/m 9,7 km/h (2 Bft) 100,00 %
31.08.2022 01:54 20,3 C 18,9 C 15,6 C 63 % 1020,3 hPa 0,0 l/m 0 min 0 min 0 W/m 12,9 km/h (3 Bft) 97,87 %
31.08.2022 01:56 20,3 C 18,9 C 15,6 C 63 % 1020,3 hPa 0,0 l/m 0 min 0 min 0 W/m 6,4 km/h (2 Bft) 100,00 %
31.08.2022 01:58 20,3 C 18,9 C 15,6 C 63 % 1020,3 hPa 0,0 l/m 0 min 0 min 0 W/m 6,4 km/h (2 Bft) 100,00 %
31.08.2022 02:00 20,2 C 18,9 C 15,6 C 63 % 1020,3 hPa 0,0 l/m 0 min 0 min 0 W/m 6,4 km/h (2 Bft) 100,00 %
31.08.2022 02:02 20,2 C 18,9 C 15,6 C 63 % 1020,4 hPa 0,0 l/m 0 min 0 min 0 W/m 3,2 km/h (1 Bft) 100,00 %
31.08.2022 02:04 20,1 C 18,9 C 15,6 C 64 % 1020,3 hPa 0,0 l/m 0 min 0 min 0 W/m 6,4 km/h (2 Bft) 97,87 %
31.08.2022 02:06 20,1 C 18,9 C 15,6 C 64 % 1020,4 hPa 0,0 l/m 0 min 0 min 0 W/m 16,1 km/h (3 Bft) 100,00 %
31.08.2022 02:08 20,0 C 18,9 C 15,6 C 64 % 1020,3 hPa 0,0 l/m 0 min 0 min 0 W/m 9,7 km/h (2 Bft) 100,00 %
31.08.2022 02:10 19,9 C 18,9 C 15,6 C 64 % 1020,4 hPa 0,0 l/m 0 min 0 min 0 W/m 6,4 km/h (2 Bft) 97,83 %
31.08.2022 02:12 19,9 C 18,9 C 15,6 C 64 % 1020,4 hPa 0,0 l/m 0 min 0 min 0 W/m 6,4 km/h (2 Bft) 100,00 %
31.08.2022 02:14 19,9 C 18,9 C 15,6 C 64 % 1020,3 hPa 0,0 l/m 0 min 0 min 0 W/m 6,4 km/h (2 Bft) 100,00 %
31.08.2022 02:16 19,9 C 18,9 C 15,6 C 64 % 1020,3 hPa 0,0 l/m 0 min 0 min 0 W/m 3,2 km/h (1 Bft) 100,00 %
31.08.2022 02:18 19,8 C 18,9 C 15,0 C 64 % 1020,3 hPa 0,0 l/m 0 min 0 min 0 W/m 9,7 km/h (2 Bft) 97,87 %
31.08.2022 02:20 19,8 C 18,9 C 15,0 C 64 % 1020,3 hPa 0,0 l/m 0 min 0 min 0 W/m 16,1 km/h (3 Bft) 95,74 %
31.08.2022 02:22 19,8 C 18,9 C 15,0 C 64 % 1020,3 hPa 0,0 l/m 0 min 0 min 0 W/m 6,4 km/h (2 Bft) 97,83 %
31.08.2022 02:24 19,7 C 18,9 C 15,0 C 64 % 1020,3 hPa 0,0 l/m 0 min 0 min 0 W/m 6,4 km/h (2 Bft) 97,87 %
31.08.2022 02:26 19,7 C 18,9 C 15,0 C 64 % 1020,3 hPa 0,0 l/m 0 min 0 min 0 W/m 9,7 km/h (2 Bft) 97,87 %
31.08.2022 02:28 19,7 C 18,9 C 15,0 C 65 % 1020,2 hPa 0,0 l/m 0 min 0 min 0 W/m 6,4 km/h (2 Bft) 97,87 %
31.08.2022 02:30 19,7 C 18,9 C 15,0 C 65 % 1020,1 hPa 0,0 l/m 0 min 0 min 0 W/m 16,1 km/h (3 Bft) 97,87 %
31.08.2022 02:32 19,6 C 18,9 C 15,0 C 65 % 1020,1 hPa 0,0 l/m 0 min 0 min 0 W/m 9,7 km/h (2 Bft) 97,87 %
31.08.2022 02:34 19,6 C 18,9 C 15,0 C 65 % 1020,1 hPa 0,0 l/m 0 min 0 min 0 W/m 6,4 km/h (2 Bft) 95,65 %
31.08.2022 02:36 19,6 C 18,9 C 15,0 C 65 % 1020,2 hPa 0,0 l/m 0 min 0 min 0 W/m 9,7 km/h (2 Bft) 97,87 %
31.08.2022 02:38 19,6 C 18,9 C 15,0 C 65 % 1020,1 hPa 0,0 l/m 0 min 0 min 0 W/m 9,7 km/h (2 Bft) 97,87 %
31.08.2022 02:40 19,6 C 18,9 C 15,0 C 65 % 1020,1 hPa 0,0 l/m 0 min 0 min 0 W/m 6,4 km/h (2 Bft) 97,87 %
31.08.2022 02:42 19,5 C 18,3 C 15,0 C 65 % 1020,2 hPa 0,0 l/m 0 min 0 min 0 W/m 6,4 km/h (2 Bft) 95,74 %
31.08.2022 02:44 19,5 C 18,3 C 15,0 C 66 % 1020,1 hPa 0,0 l/m 0 min 0 min 0 W/m 3,2 km/h (1 Bft) 97,87 %
31.08.2022 02:46 19,4 C 18,3 C 15,0 C 66 % 1020,1 hPa 0,0 l/m 0 min 0 min 0 W/m 6,4 km/h (2 Bft) 95,65 %
31.08.2022 02:48 19,4 C 18,3 C 15,0 C 66 % 1020,1 hPa 0,0 l/m 0 min 0 min 0 W/m 3,2 km/h (1 Bft) 97,87 %
31.08.2022 02:50 19,4 C 18,3 C 15,0 C 66 % 1020,1 hPa 0,0 l/m 0 min 0 min 0 W/m 9,7 km/h (2 Bft) 95,74 %
31.08.2022 02:52 19,3 C 18,3 C 15,0 C 66 % 1020,1 hPa 0,0 l/m 0 min 0 min 0 W/m 6,4 km/h (2 Bft) 97,87 %
31.08.2022 02:54 19,3 C 18,3 C 15,0 C 66 % 1020,1 hPa 0,0 l/m 0 min 0 min 0 W/m 12,9 km/h (3 Bft) 95,74 %
31.08.2022 02:56 19,3 C 18,3 C 14,4 C 67 % 1020,1 hPa 0,0 l/m 0 min 0 min 0 W/m 12,9 km/h (3 Bft) 93,48 %
31.08.2022 02:58 19,2 C 18,3 C 14,4 C 67 % 1020,0 hPa 0,0 l/m 0 min 0 min 0 W/m 16,1 km/h (3 Bft) 95,74 %
31.08.2022 03:00 19,2 C 17,8 C 14,4 C 67 % 1020,1 hPa 0,0 l/m 0 min 0 min 0 W/m 9,7 km/h (2 Bft) 95,74 %
31.08.2022 03:02 19,1 C 18,3 C 14,4 C 67 % 1020,1 hPa 0,0 l/m 0 min 0 min 0 W/m 9,7 km/h (2 Bft) 95,83 %
31.08.2022 03:04 19,1 C 17,8 C 14,4 C 68 % 1020,1 hPa 0,0 l/m 0 min 0 min 0 W/m 6,4 km/h (2 Bft) 95,74 %
31.08.2022 03:06 19,1 C 17,8 C 14,4 C 68 % 1020,2 hPa 0,0 l/m 0 min 0 min 0 W/m 6,4 km/h (2 Bft) 95,74 %
31.08.2022 03:08 19,0 C 17,8 C 14,4 C 68 % 1020,2 hPa 0,0 l/m 0 min 0 min 0 W/m 6,4 km/h (2 Bft) 93,48 %
31.08.2022 03:10 19,0 C 17,8 C 14,4 C 68 % 1020,2 hPa 0,0 l/m 0 min 0 min 0 W/m 6,4 km/h (2 Bft) 95,74 %
31.08.2022 03:12 18,9 C 17,8 C 14,4 C 68 % 1020,1 hPa 0,0 l/m 0 min 0 min 0 W/m 12,9 km/h (3 Bft) 91,49 %
31.08.2022 03:14 18,9 C 17,8 C 14,4 C 69 % 1020,2 hPa 0,0 l/m 0 min 0 min 0 W/m 16,1 km/h (3 Bft) 95,74 %
31.08.2022 03:16 18,9 C 17,8 C 14,4 C 69 % 1020,2 hPa 0,0 l/m 0 min 0 min 0 W/m 9,7 km/h (2 Bft) 95,74 %
31.08.2022 03:18 18,8 C 17,8 C 14,4 C 69 % 1020,2 hPa 0,0 l/m 0 min 0 min 0 W/m 12,9 km/h (3 Bft) 93,62 %
31.08.2022 03:20 18,8 C 17,8 C 14,4 C 69 % 1020,3 hPa 0,0 l/m 0 min 0 min 0 W/m 6,4 km/h (2 Bft) 95,65 %
31.08.2022 03:22 18,8 C 17,8 C 14,4 C 70 % 1020,3 hPa 0,0 l/m 0 min 0 min 0 W/m 9,7 km/h (2 Bft) 95,74 %
31.08.2022 03:24 18,8 C 17,8 C 14,4 C 70 % 1020,3 hPa 0,0 l/m 0 min 0 min 0 W/m 9,7 km/h (2 Bft) 95,74 %
31.08.2022 03:26 18,7 C 17,8 C 14,4 C 70 % 1020,3 hPa 0,0 l/m 0 min 0 min 0 W/m 9,7 km/h (2 Bft) 91,49 %
31.08.2022 03:28 18,7 C 17,8 C 14,4 C 71 % 1020,3 hPa 0,0 l/m 0 min 0 min 0 W/m 16,1 km/h (3 Bft) 95,74 %
31.08.2022 03:30 18,6 C 17,8 C 14,4 C 71 % 1020,3 hPa 0,0 l/m 0 min 0 min 0 W/m 12,9 km/h (3 Bft) 95,74 %
31.08.2022 03:32 18,6 C 17,8 C 13,9 C 71 % 1020,3 hPa 0,0 l/m 0 min 0 min 0 W/m 9,7 km/h (2 Bft) 95,65 %
31.08.2022 03:34 18,6 C 17,8 C 13,9 C 71 % 1020,3 hPa 0,0 l/m 0 min 0 min 0 W/m 12,9 km/h (3 Bft) 95,74 %
31.08.2022 03:36 18,6 C 17,2 C 13,9 C 71 % 1020,3 hPa 0,0 l/m 0 min 0 min 0 W/m 12,9 km/h (3 Bft) 95,74 %
31.08.2022 03:38 18,5 C 17,2 C 13,9 C 72 % 1020,3 hPa 0,0 l/m 0 min 0 min 0 W/m 12,9 km/h (3 Bft) 95,74 %
31.08.2022 03:40 18,5 C 17,2 C 13,9 C 72 % 1020,3 hPa 0,0 l/m 0 min 0 min 0 W/m 6,4 km/h (2 Bft) 95,74 %
31.08.2022 03:42 18,5 C 17,2 C 13,9 C 72 % 1020,3 hPa 0,0 l/m 0 min 0 min 0 W/m 16,1 km/h (3 Bft) 97,87 %
31.08.2022 03:44 18,4 C 17,2 C 13,9 C 72 % 1020,3 hPa 0,0 l/m 0 min 0 min 0 W/m 6,4 km/h (2 Bft) 100,00 %
31.08.2022 03:46 18,4 C 17,2 C 13,9 C 73 % 1020,3 hPa 0,0 l/m 0 min 0 min 0 W/m 9,7 km/h (2 Bft) 97,87 %
31.08.2022 03:48 18,4 C 17,2 C 13,9 C 73 % 1020,3 hPa 0,0 l/m 0 min 0 min 0 W/m 16,1 km/h (3 Bft) 100,00 %
31.08.2022 03:50 18,4 C 17,2 C 13,9 C 73 % 1020,3 hPa 0,0 l/m 0 min 0 min 0 W/m 9,7 km/h (2 Bft) 100,00 %
31.08.2022 03:52 18,3 C 17,2 C 13,9 C 73 % 1020,3 hPa 0,0 l/m 0 min 0 min 0 W/m 12,9 km/h (3 Bft) 100,00 %
31.08.2022 03:54 18,3 C 17,2 C 13,9 C 73 % 1020,3 hPa 0,0 l/m 0 min 0 min 0 W/m 9,7 km/h (2 Bft) 100,00 %
31.08.2022 03:56 18,3 C 17,2 C 13,9 C 73 % 1020,3 hPa 0,0 l/m 0 min 0 min 0 W/m 9,7 km/h (2 Bft) 97,83 %
31.08.2022 03:58 18,3 C 17,2 C 13,9 C 74 % 1020,3 hPa 0,0 l/m 0 min 0 min 0 W/m 6,4 km/h (2 Bft) 97,87 %
31.08.2022 04:00 18,3 C 17,2 C 13,9 C 74 % 1020,3 hPa 0,0 l/m 0 min 0 min 0 W/m 6,4 km/h (2 Bft) 100,00 %
31.08.2022 04:02 18,3 C 17,2 C 13,9 C 74 % 1020,4 hPa 0,0 l/m 0 min 0 min 0 W/m 6,4 km/h (2 Bft) 96,88 %
31.08.2022 04:04 18,3 C 17,2 C 13,9 C 74 % 1020,4 hPa 0,0 l/m 0 min 0 min 0 W/m 6,4 km/h (2 Bft) 100,00 %
31.08.2022 04:06 18,3 C 17,2 C 13,9 C 74 % 1020,3 hPa 0,0 l/m 0 min 0 min 0 W/m 9,7 km/h (2 Bft) 100,00 %
31.08.2022 04:08 18,3 C 17,2 C 13,9 C 74 % 1020,4 hPa 0,0 l/m 0 min 0 min 0 W/m 9,7 km/h (2 Bft) 100,00 %
31.08.2022 04:10 18,3 C 17,2 C 13,9 C 75 % 1020,4 hPa 0,0 l/m 0 min 0 min 0 W/m 9,7 km/h (2 Bft) 100,00 %
31.08.2022 04:12 18,2 C 17,2 C 13,9 C 75 % 1020,4 hPa 0,0 l/m 0 min 0 min 0 W/m 6,4 km/h (2 Bft) 95,74 %
31.08.2022 04:14 18,2 C 17,2 C 13,9 C 75 % 1020,4 hPa 0,0 l/m 0 min 0 min 0 W/m 9,7 km/h (2 Bft) 97,87 %
31.08.2022 04:16 18,2 C 17,2 C 13,9 C 75 % 1020,4 hPa 0,0 l/m 0 min 0 min 0 W/m 9,7 km/h (2 Bft) 97,87 %
31.08.2022 04:18 18,2 C 17,2 C 13,9 C 75 % 1020,4 hPa 0,0 l/m 0 min 0 min 0 W/m 6,4 km/h (2 Bft) 97,87 %
31.08.2022 04:20 18,2 C 17,2 C 13,9 C 75 % 1020,4 hPa 0,0 l/m 0 min 0 min 0 W/m 9,7 km/h (2 Bft) 97,83 %
31.08.2022 04:22 18,2 C 17,2 C 13,9 C 75 % 1020,5 hPa 0,0 l/m 0 min 0 min 0 W/m 12,9 km/h (3 Bft) 97,92 %
31.08.2022 04:24 18,2 C 17,2 C 13,9 C 75 % 1020,4 hPa 0,0 l/m 0 min 0 min 0 W/m 9,7 km/h (2 Bft) 97,87 %
31.08.2022 04:26 18,2 C 17,2 C 13,9 C 75 % 1020,5 hPa 0,0 l/m 0 min 0 min 0 W/m 9,7 km/h (2 Bft) 97,83 %
31.08.2022 04:28 18,2 C 17,2 C 13,9 C 76 % 1020,5 hPa 0,0 l/m 0 min 0 min 0 W/m 6,4 km/h (2 Bft) 97,87 %
31.08.2022 04:30 18,2 C 17,2 C 13,9 C 76 % 1020,5 hPa 0,0 l/m 0 min 0 min 0 W/m 22,5 km/h (4 Bft) 97,87 %
31.08.2022 04:32 18,2 C 17,2 C 13,9 C 76 % 1020,5 hPa 0,0 l/m 0 min 0 min 0 W/m 6,4 km/h (2 Bft) 97,87 %
31.08.2022 04:34 18,2 C 17,2 C 13,9 C 76 % 1020,5 hPa 0,0 l/m 0 min 0 min 0 W/m 6,4 km/h (2 Bft) 95,74 %
31.08.2022 04:36 18,2 C 17,2 C 13,9 C 76 % 1020,5 hPa 0,0 l/m 0 min 0 min 0 W/m 6,4 km/h (2 Bft) 97,87 %
31.08.2022 04:38 18,2 C 17,2 C 13,9 C 76 % 1020,5 hPa 0,0 l/m 0 min 0 min 0 W/m 16,1 km/h (3 Bft) 97,83 %
31.08.2022 04:40 18,2 C 17,2 C 13,9 C 76 % 1020,5 hPa 0,0 l/m 0 min 0 min 0 W/m 9,7 km/h (2 Bft) 95,74 %
31.08.2022 04:42 18,1 C 17,2 C 13,9 C 76 % 1020,5 hPa 0,0 l/m 0 min 0 min 0 W/m 12,9 km/h (3 Bft) 97,87 %
31.08.2022 04:44 18,1 C 17,2 C 13,9 C 76 % 1020,5 hPa 0,0 l/m 0 min 0 min 0 W/m 6,4 km/h (2 Bft) 100,00 %
31.08.2022 04:46 18,1 C 17,2 C 13,9 C 76 % 1020,4 hPa 0,0 l/m 0 min 0 min 0 W/m 12,9 km/h (3 Bft) 100,00 %
31.08.2022 04:48 18,1 C 17,2 C 13,9 C 76 % 1020,5 hPa 0,0 l/m 0 min 0 min 0 W/m 6,4 km/h (2 Bft) 97,83 %
31.08.2022 04:50 18,1 C 17,2 C 13,9 C 77 % 1020,5 hPa 0,0 l/m 0 min 0 min 0 W/m 6,4 km/h (2 Bft) 100,00 %
31.08.2022 04:52 18,1 C 17,2 C 13,9 C 77 % 1020,5 hPa 0,0 l/m 0 min 0 min 0 W/m 12,9 km/h (3 Bft) 100,00 %
31.08.2022 04:54 18,1 C 17,2 C 13,9 C 77 % 1020,4 hPa 0,0 l/m 0 min 0 min 0 W/m 6,4 km/h (2 Bft) 100,00 %
31.08.2022 04:56 18,1 C 17,2 C 13,9 C 77 % 1020,5 hPa 0,0 l/m 0 min 0 min 0 W/m 6,4 km/h (2 Bft) 100,00 %
31.08.2022 04:58 18,0 C 17,2 C 13,9 C 77 % 1020,5 hPa 0,0 l/m 0 min 0 min 0 W/m 9,7 km/h (2 Bft) 100,00 %
31.08.2022 05:00 18,0 C 17,2 C 13,3 C 77 % 1020,5 hPa 0,0 l/m 0 min 0 min 0 W/m 6,4 km/h (2 Bft) 100,00 %
31.08.2022 05:02 17,9 C 17,2 C 13,3 C 77 % 1020,5 hPa 0,0 l/m 0 min 0 min 0 W/m 6,4 km/h (2 Bft) 100,00 %
31.08.2022 05:04 17,9 C 17,2 C 13,3 C 77 % 1020,5 hPa 0,0 l/m 0 min 0 min 0 W/m 9,7 km/h (2 Bft) 100,00 %
31.08.2022 05:06 17,9 C 16,7 C 13,3 C 77 % 1020,5 hPa 0,0 l/m 0 min 0 min 0 W/m 6,4 km/h (2 Bft) 100,00 %
31.08.2022 05:08 17,9 C 16,7 C 13,3 C 78 % 1020,5 hPa 0,0 l/m 0 min 0 min 0 W/m 6,4 km/h (2 Bft) 100,00 %
31.08.2022 05:10 17,8 C 16,7 C 13,3 C 78 % 1020,5 hPa 0,0 l/m 0 min 0 min 0 W/m 6,4 km/h (2 Bft) 100,00 %
31.08.2022 05:12 17,8 C 16,7 C 13,3 C 78 % 1020,5 hPa 0,0 l/m 0 min 0 min 0 W/m 9,7 km/h (2 Bft) 100,00 %
31.08.2022 05:14 17,8 C 16,7 C 13,3 C 78 % 1020,5 hPa 0,0 l/m 0 min 0 min 0 W/m 6,4 km/h (2 Bft) 100,00 %
31.08.2022 05:16 17,8 C 16,7 C 13,3 C 78 % 1020,4 hPa 0,0 l/m 0 min 0 min 0 W/m 6,4 km/h (2 Bft) 100,00 %
31.08.2022 05:18 17,7 C 16,7 C 13,3 C 78 % 1020,4 hPa 0,0 l/m 0 min 0 min 0 W/m 3,2 km/h (1 Bft) 93,62 %
31.08.2022 05:20 17,7 C 16,7 C 13,3 C 78 % 1020,4 hPa 0,0 l/m 0 min 0 min 0 W/m 9,7 km/h (2 Bft) 100,00 %
31.08.2022 05:22 17,7 C 16,7 C 13,3 C 78 % 1020,4 hPa 0,0 l/m 0 min 0 min 0 W/m 6,4 km/h (2 Bft) 100,00 %
31.08.2022 05:24 17,7 C 16,7 C 13,3 C 78 % 1020,4 hPa 0,0 l/m 0 min 0 min 0 W/m 6,4 km/h (2 Bft) 100,00 %
31.08.2022 05:26 17,6 C 16,7 C 13,3 C 78 % 1020,4 hPa 0,0 l/m 0 min 0 min 0 W/m 3,2 km/h (1 Bft) 100,00 %
31.08.2022 05:28 17,6 C 16,7 C 12,8 C 78 % 1020,4 hPa 0,0 l/m 0 min 0 min 0 W/m 9,7 km/h (2 Bft) 97,87 %
31.08.2022 05:30 17,6 C 16,7 C 12,8 C 79 % 1020,4 hPa 0,0 l/m 0 min 0 min 0 W/m 6,4 km/h (2 Bft) 100,00 %
31.08.2022 05:32 17,6 C 16,7 C 12,8 C 79 % 1020,3 hPa 0,0 l/m 0 min 0 min 0 W/m 6,4 km/h (2 Bft) 97,87 %
31.08.2022 05:34 17,5 C 16,7 C 12,8 C 79 % 1020,4 hPa 0,0 l/m 0 min 0 min 0 W/m 9,7 km/h (2 Bft) 100,00 %
31.08.2022 05:36 17,5 C 16,7 C 12,8 C 79 % 1020,4 hPa 0,0 l/m 0 min 0 min 0 W/m 3,2 km/h (1 Bft) 100,00 %
31.08.2022 05:38 17,4 C 16,7 C 12,8 C 79 % 1020,3 hPa 0,0 l/m 0 min 0 min 0 W/m 3,2 km/h (1 Bft) 95,74 %
31.08.2022 05:40 17,4 C 16,7 C 12,8 C 79 % 1020,3 hPa 0,0 l/m 0 min 0 min 0 W/m 6,4 km/h (2 Bft) 93,62 %
31.08.2022 05:42 17,4 C 16,7 C 12,8 C 79 % 1020,4 hPa 0,0 l/m 0 min 0 min 0 W/m 3,2 km/h (1 Bft) 95,74 %
31.08.2022 05:44 17,3 C 16,1 C 12,8 C 79 % 1020,4 hPa 0,0 l/m 0 min 0 min 0 W/m 6,4 km/h (2 Bft) 97,87 %
31.08.2022 05:46 17,3 C 16,1 C 12,8 C 80 % 1020,4 hPa 0,0 l/m 0 min 0 min 0 W/m 6,4 km/h (2 Bft) 97,87 %
31.08.2022 05:48 17,3 C 16,1 C 12,8 C 80 % 1020,4 hPa 0,0 l/m 0 min 0 min 0 W/m 3,2 km/h (1 Bft) 95,65 %
31.08.2022 05:50 17,3 C 16,1 C 12,8 C 80 % 1020,4 hPa 0,0 l/m 0 min 0 min 0 W/m 6,4 km/h (2 Bft) 95,74 %
31.08.2022 05:52 17,3 C 16,1 C 12,8 C 80 % 1020,4 hPa 0,0 l/m 0 min 0 min 0 W/m 6,4 km/h (2 Bft) 95,74 %
31.08.2022 05:54 17,3 C 16,1 C 12,8 C 80 % 1020,5 hPa 0,0 l/m 0 min 0 min 0 W/m 3,2 km/h (1 Bft) 95,74 %
31.08.2022 05:56 17,2 C 16,1 C 12,8 C 80 % 1020,5 hPa 0,0 l/m 0 min 0 min 0 W/m 3,2 km/h (1 Bft) 93,62 %
31.08.2022 05:58 17,2 C 16,1 C 12,8 C 80 % 1020,4 hPa 0,0 l/m 0 min 0 min 0 W/m 3,2 km/h (1 Bft) 95,74 %
31.08.2022 06:00 17,2 C 16,1 C 12,8 C 81 % 1020,5 hPa 0,0 l/m 0 min 0 min 0 W/m 3,2 km/h (1 Bft) 95,65 %
31.08.2022 06:02 17,2 C 16,1 C 12,8 C 81 % 1020,5 hPa 0,0 l/m 0 min 0 min 0 W/m 3,2 km/h (1 Bft) 93,62 %
31.08.2022 06:04 17,2 C 16,1 C 12,8 C 81 % 1020,5 hPa 0,0 l/m 0 min 0 min 0 W/m 6,4 km/h (2 Bft) 91,49 %
31.08.2022 06:08 17,2 C 16,1 C 12,8 C 81 % 1020,5 hPa 0,0 l/m 0 min 0 min 0 W/m 3,2 km/h (1 Bft) 93,90 %
31.08.2022 06:10 17,1 C 16,1 C 12,8 C 81 % 1020,5 hPa 0,0 l/m 0 min 0 min 0 W/m 3,2 km/h (1 Bft) 93,62 %
31.08.2022 06:12 17,1 C 16,1 C 12,8 C 81 % 1020,5 hPa 0,0 l/m 0 min 0 min 0 W/m 3,2 km/h (1 Bft) 91,49 %
31.08.2022 06:14 17,1 C 16,1 C 12,8 C 81 % 1020,5 hPa 0,0 l/m 0 min 0 min 0 W/m 3,2 km/h (1 Bft) 91,49 %
31.08.2022 06:16 17,1 C 16,1 C 12,8 C 81 % 1020,5 hPa 0,0 l/m 0 min 0 min 0 W/m 3,2 km/h (1 Bft) 91,30 %
31.08.2022 06:18 17,1 C 16,1 C 12,8 C 81 % 1020,5 hPa 0,0 l/m 0 min 0 min 0 W/m 3,2 km/h (1 Bft) 93,62 %
31.08.2022 06:20 17,0 C 16,1 C 12,8 C 81 % 1020,4 hPa 0,0 l/m 0 min 0 min 0 W/m 6,4 km/h (2 Bft) 93,62 %
31.08.2022 06:22 17,0 C 16,1 C 12,8 C 81 % 1020,4 hPa 0,0 l/m 0 min 0 min 0 W/m 3,2 km/h (1 Bft) 95,74 %
31.08.2022 06:24 17,0 C 16,1 C 12,8 C 81 % 1020,4 hPa 0,0 l/m 0 min 0 min 0 W/m 3,2 km/h (1 Bft) 93,62 %
31.08.2022 06:26 16,9 C 16,1 C 12,8 C 81 % 1020,5 hPa 0,0 l/m 0 min 0 min 0 W/m 6,4 km/h (2 Bft) 93,62 %
31.08.2022 06:28 16,9 C 15,6 C 12,8 C 81 % 1020,5 hPa 0,0 l/m 0 min 0 min 0 W/m 6,4 km/h (2 Bft) 95,65 %
31.08.2022 06:30 16,9 C 15,6 C 12,8 C 82 % 1020,5 hPa 0,0 l/m 0 min 0 min 0 W/m 6,4 km/h (2 Bft) 93,62 %
31.08.2022 06:32 16,8 C 15,6 C 12,8 C 82 % 1020,5 hPa 0,0 l/m 0 min 0 min 0 W/m 3,2 km/h (1 Bft) 95,74 %
31.08.2022 06:34 16,8 C 15,6 C 12,2 C 82 % 1020,5 hPa 0,0 l/m 0 min 0 min 0 W/m 0,0 km/h (0 Bft) 97,87 %
31.08.2022 06:36 16,8 C 15,6 C 12,2 C 82 % 1020,5 hPa 0,0 l/m 0 min 0 min 0 W/m 3,2 km/h (1 Bft) 96,55 %
31.08.2022 06:38 16,8 C 15,6 C 12,2 C 82 % 1020,5 hPa 0,0 l/m 0 min 0 min 0 W/m 6,4 km/h (2 Bft) 100,00 %
31.08.2022 06:40 16,8 C 15,6 C 12,2 C 82 % 1020,5 hPa 0,0 l/m 0 min 0 min 0 W/m 3,2 km/h (1 Bft) 100,00 %
31.08.2022 06:42 16,7 C 15,6 C 12,2 C 82 % 1020,6 hPa 0,0 l/m 0 min 0 min 0 W/m 3,2 km/h (1 Bft) 100,00 %
31.08.2022 06:44 16,7 C 15,6 C 12,2 C 82 % 1020,6 hPa 0,0 l/m 0 min 0 min 0 W/m 3,2 km/h (1 Bft) 100,00 %
31.08.2022 06:46 16,7 C 15,6 C 12,2 C 82 % 1020,6 hPa 0,0 l/m 0 min 0 min 0 W/m 6,4 km/h (2 Bft) 97,87 %
31.08.2022 06:48 16,7 C 15,6 C 12,2 C 82 % 1020,5 hPa 0,0 l/m 0 min 0 min 0 W/m 6,4 km/h (2 Bft) 100,00 %
31.08.2022 06:50 16,6 C 15,6 C 12,2 C 82 % 1020,5 hPa 0,0 l/m 0 min 0 min 0 W/m 3,2 km/h (1 Bft) 100,00 %
31.08.2022 06:52 16,6 C 15,6 C 12,2 C 82 % 1020,6 hPa 0,0 l/m 0 min 0 min 0 W/m 6,4 km/h (2 Bft) 100,00 %
31.08.2022 06:54 16,6 C 15,6 C 12,2 C 82 % 1020,6 hPa 0,0 l/m 0 min 0 min 0 W/m 3,2 km/h (1 Bft) 100,00 %
31.08.2022 06:56 16,6 C 15,6 C 12,2 C 82 % 1020,6 hPa 0,0 l/m 0 min 0 min 0 W/m 6,4 km/h (2 Bft) 91,49 %
31.08.2022 06:58 16,6 C 15,6 C 12,2 C 83 % 1020,6 hPa 0,0 l/m 0 min 0 min 0 W/m 0,0 km/h (0 Bft) 100,00 %
31.08.2022 07:00 16,6 C 15,6 C 12,2 C 83 % 1020,6 hPa 0,0 l/m 0 min 0 min 4 W/m 3,2 km/h (1 Bft) 97,87 %
31.08.2022 07:02 16,6 C 15,6 C 12,2 C 83 % 1020,7 hPa 0,0 l/m 0 min 0 min 5 W/m 6,4 km/h (2 Bft) 100,00 %
31.08.2022 07:04 16,6 C 15,6 C 12,2 C 83 % 1020,7 hPa 0,0 l/m 0 min 0 min 5 W/m 6,4 km/h (2 Bft) 100,00 %
31.08.2022 07:06 16,5 C 15,6 C 12,2 C 83 % 1020,7 hPa 0,0 l/m 0 min 0 min 5 W/m 6,4 km/h (2 Bft) 100,00 %
31.08.2022 07:08 16,5 C 15,6 C 12,2 C 83 % 1020,7 hPa 0,0 l/m 0 min 0 min 7 W/m 3,2 km/h (1 Bft) 96,72 %
31.08.2022 07:10 16,5 C 15,6 C 12,2 C 83 % 1020,7 hPa 0,0 l/m 0 min 0 min 8 W/m 3,2 km/h (1 Bft) 97,87 %
31.08.2022 07:12 16,4 C 15,6 C 12,2 C 83 % 1020,7 hPa 0,0 l/m 0 min 0 min 10 W/m 3,2 km/h (1 Bft) 95,74 %
31.08.2022 07:14 16,4 C 15,6 C 12,2 C 83 % 1020,7 hPa 0,0 l/m 0 min 0 min 11 W/m 3,2 km/h (1 Bft) 100,00 %
31.08.2022 07:16 16,4 C 15,6 C 12,2 C 83 % 1020,7 hPa 0,0 l/m 0 min 0 min 11 W/m 3,2 km/h (1 Bft) 100,00 %
31.08.2022 07:18 16,4 C 15,6 C 12,2 C 83 % 1020,7 hPa 0,0 l/m 0 min 0 min 12 W/m 6,4 km/h (2 Bft) 100,00 %
31.08.2022 07:20 16,4 C 15,6 C 12,2 C 83 % 1020,7 hPa 0,0 l/m 0 min 0 min 12 W/m 3,2 km/h (1 Bft) 97,87 %
31.08.2022 07:22 16,4 C 15,6 C 12,2 C 83 % 1020,7 hPa 0,0 l/m 0 min 0 min 12 W/m 3,2 km/h (1 Bft) 95,74 %
31.08.2022 07:24 16,4 C 15,6 C 12,2 C 83 % 1020,7 hPa 0,0 l/m 0 min 0 min 13 W/m 3,2 km/h (1 Bft) 100,00 %
31.08.2022 07:26 16,3 C 15,6 C 12,2 C 83 % 1020,8 hPa 0,0 l/m 0 min 0 min 14 W/m 3,2 km/h (1 Bft) 100,00 %
31.08.2022 07:28 16,3 C 15,6 C 12,2 C 84 % 1020,7 hPa 0,0 l/m 0 min 0 min 17 W/m 3,2 km/h (1 Bft) 97,87 %
31.08.2022 07:30 16,3 C 15,6 C 12,2 C 84 % 1020,7 hPa 0,0 l/m 0 min 0 min 19 W/m 6,4 km/h (2 Bft) 100,00 %
31.08.2022 07:32 16,3 C 15,6 C 12,2 C 84 % 1020,7 hPa 0,0 l/m 0 min 0 min 21 W/m 3,2 km/h (1 Bft) 97,87 %
31.08.2022 07:34 16,3 C 15,6 C 12,2 C 84 % 1020,7 hPa 0,0 l/m 0 min 0 min 23 W/m 3,2 km/h (1 Bft) 100,00 %
31.08.2022 07:36 16,3 C 15,6 C 12,2 C 84 % 1020,7 hPa 0,0 l/m 0 min 0 min 24 W/m 3,2 km/h (1 Bft) 96,55 %
31.08.2022 07:38 16,2 C 15,6 C 12,2 C 84 % 1020,7 hPa 0,0 l/m 0 min 0 min 26 W/m 3,2 km/h (1 Bft) 100,00 %
31.08.2022 07:40 16,2 C 15,6 C 12,2 C 84 % 1020,7 hPa 0,0 l/m 0 min 0 min 28 W/m 3,2 km/h (1 Bft) 100,00 %
31.08.2022 07:42 16,2 C 15,6 C 12,2 C 85 % 1020,7 hPa 0,0 l/m 0 min 0 min 31 W/m 3,2 km/h (1 Bft) 100,00 %
31.08.2022 07:44 16,2 C 15,6 C 12,2 C 85 % 1020,7 hPa 0,0 l/m 0 min 0 min 33 W/m 0,0 km/h (0 Bft) 100,00 %
31.08.2022 07:46 16,2 C 15,6 C 12,2 C 85 % 1020,7 hPa 0,0 l/m 0 min 0 min 35 W/m 3,2 km/h (1 Bft) 97,87 %
31.08.2022 07:48 16,3 C 15,6 C 12,2 C 85 % 1020,7 hPa 0,0 l/m 0 min 0 min 37 W/m 9,7 km/h (2 Bft) 97,87 %
31.08.2022 07:50 16,2 C 15,6 C 12,2 C 85 % 1020,6 hPa 0,0 l/m 0 min 0 min 39 W/m 6,4 km/h (2 Bft) 100,00 %
31.08.2022 07:52 16,2 C 15,6 C 12,2 C 85 % 1020,6 hPa 0,0 l/m 0 min 0 min 42 W/m 6,4 km/h (2 Bft) 97,83 %
31.08.2022 07:54 16,3 C 16,1 C 12,2 C 85 % 1020,6 hPa 0,0 l/m 0 min 0 min 46 W/m 6,4 km/h (2 Bft) 95,74 %
31.08.2022 07:56 16,3 C 16,1 C 12,2 C 85 % 1020,6 hPa 0,0 l/m 0 min 0 min 49 W/m 9,7 km/h (2 Bft) 95,74 %
31.08.2022 07:58 16,3 C 16,1 C 12,2 C 85 % 1020,6 hPa 0,0 l/m 0 min 0 min 54 W/m 12,9 km/h (3 Bft) 97,87 %
31.08.2022 08:00 16,3 C 16,1 C 12,8 C 84 % 1020,7 hPa 0,0 l/m 0 min 0 min 62 W/m 9,7 km/h (2 Bft) 97,87 %
31.08.2022 08:02 16,4 C 16,1 C 12,8 C 84 % 1020,7 hPa 0,0 l/m 0 min 0 min 71 W/m 12,9 km/h (3 Bft) 97,83 %
31.08.2022 08:04 16,4 C 16,1 C 12,8 C 84 % 1020,7 hPa 0,0 l/m 0 min 0 min 78 W/m 9,7 km/h (2 Bft) 95,74 %
31.08.2022 08:06 16,5 C 16,1 C 12,8 C 84 % 1020,7 hPa 0,0 l/m 0 min 0 min 82 W/m 12,9 km/h (3 Bft) 94,92 %
31.08.2022 08:08 16,5 C 16,7 C 12,8 C 84 % 1020,7 hPa 0,0 l/m 0 min 0 min 87 W/m 12,9 km/h (3 Bft) 97,14 %
31.08.2022 08:10 16,6 C 16,7 C 12,8 C 84 % 1020,7 hPa 0,0 l/m 0 min 0 min 86 W/m 6,4 km/h (2 Bft) 97,87 %
31.08.2022 08:12 16,6 C 16,7 C 12,8 C 84 % 1020,7 hPa 0,0 l/m 0 min 0 min 84 W/m 6,4 km/h (2 Bft) 97,87 %
31.08.2022 08:14 16,7 C 16,7 C 12,8 C 84 % 1020,8 hPa 0,0 l/m 0 min 0 min 81 W/m 12,9 km/h (3 Bft) 95,74 %
31.08.2022 08:16 16,7 C 16,7 C 12,8 C 83 % 1020,8 hPa 0,0 l/m 0 min 0 min 74 W/m 16,1 km/h (3 Bft) 95,65 %
31.08.2022 08:18 16,7 C 16,7 C 12,8 C 83 % 1020,7 hPa 0,0 l/m 0 min 0 min 68 W/m 16,1 km/h (3 Bft) 95,74 %
31.08.2022 08:20 16,8 C 16,7 C 12,8 C 83 % 1020,7 hPa 0,0 l/m 0 min 0 min 63 W/m 19,3 km/h (3 Bft) 95,74 %
31.08.2022 08:22 16,8 C 16,7 C 12,8 C 83 % 1020,7 hPa 0,0 l/m 0 min 0 min 57 W/m 22,5 km/h (4 Bft) 95,74 %
31.08.2022 08:24 16,8 C 16,7 C 12,8 C 82 % 1020,8 hPa 0,0 l/m 0 min 0 min 51 W/m 12,9 km/h (3 Bft) 93,62 %
31.08.2022 08:26 16,9 C 16,7 C 12,8 C 82 % 1020,7 hPa 0,0 l/m 0 min 0 min 48 W/m 12,9 km/h (3 Bft) 93,48 %
31.08.2022 08:28 16,9 C 16,7 C 12,8 C 82 % 1020,8 hPa 0,0 l/m 0 min 0 min 46 W/m 16,1 km/h (3 Bft) 97,87 %
31.08.2022 08:30 16,9 C 16,7 C 12,8 C 82 % 1020,8 hPa 0,0 l/m 0 min 0 min 44 W/m 12,9 km/h (3 Bft) 95,74 %
31.08.2022 08:32 16,9 C 16,1 C 12,8 C 82 % 1020,8 hPa 0,0 l/m 0 min 0 min 45 W/m 12,9 km/h (3 Bft) 95,74 %
31.08.2022 08:34 16,9 C 16,1 C 12,8 C 82 % 1020,8 hPa 0,0 l/m 0 min 0 min 46 W/m 19,3 km/h (3 Bft) 95,74 %
31.08.2022 08:36 16,9 C 16,1 C 12,8 C 82 % 1020,8 hPa 0,0 l/m 0 min 0 min 52 W/m 9,7 km/h (2 Bft) 98,28 %
31.08.2022 08:38 16,9 C 16,7 C 12,8 C 82 % 1020,8 hPa 0,0 l/m 0 min 0 min 54 W/m 12,9 km/h (3 Bft) 97,14 %
31.08.2022 08:40 16,9 C 16,7 C 12,8 C 82 % 1020,8 hPa 0,0 l/m 0 min 0 min 60 W/m 16,1 km/h (3 Bft) 97,87 %
31.08.2022 08:42 16,9 C 16,7 C 12,8 C 82 % 1020,9 hPa 0,0 l/m 0 min 0 min 66 W/m 12,9 km/h (3 Bft) 97,87 %
31.08.2022 08:44 17,0 C 16,7 C 12,8 C 82 % 1020,9 hPa 0,0 l/m 0 min 0 min 73 W/m 6,4 km/h (2 Bft) 97,87 %
31.08.2022 08:46 17,0 C 16,7 C 12,8 C 82 % 1020,9 hPa 0,0 l/m 0 min 0 min 79 W/m 6,4 km/h (2 Bft) 95,74 %
31.08.2022 08:48 17,1 C 16,7 C 13,3 C 82 % 1020,9 hPa 0,0 l/m 0 min 0 min 82 W/m 12,9 km/h (3 Bft) 95,74 %
31.08.2022 08:50 17,1 C 16,7 C 13,3 C 82 % 1020,9 hPa 0,0 l/m 0 min 0 min 82 W/m 12,9 km/h (3 Bft) 95,65 %
31.08.2022 08:52 17,1 C 16,7 C 13,3 C 81 % 1020,9 hPa 0,0 l/m 0 min 0 min 79 W/m 6,4 km/h (2 Bft) 93,62 %
31.08.2022 08:54 17,2 C 17,2 C 13,3 C 81 % 1020,9 hPa 0,0 l/m 0 min 0 min 78 W/m 9,7 km/h (2 Bft) 95,74 %
31.08.2022 08:56 17,2 C 17,2 C 13,3 C 81 % 1020,9 hPa 0,0 l/m 0 min 0 min 80 W/m 6,4 km/h (2 Bft) 93,62 %
31.08.2022 08:58 17,2 C 17,2 C 13,3 C 81 % 1020,9 hPa 0,0 l/m 0 min 0 min 94 W/m 12,9 km/h (3 Bft) 95,74 %
31.08.2022 09:00 17,3 C 17,2 C 13,3 C 81 % 1021,0 hPa 0,0 l/m 0 min 0 min 99 W/m 6,4 km/h (2 Bft) 91,49 %
31.08.2022 09:02 17,3 C 17,2 C 13,3 C 81 % 1021,1 hPa 0,0 l/m 0 min 0 min 137 W/m 3,2 km/h (1 Bft) 95,74 %
31.08.2022 09:04 17,3 C 17,2 C 13,3 C 81 % 1021,1 hPa 0,0 l/m 2 min 0 min 187 W/m 9,7 km/h (2 Bft) 97,96 %
31.08.2022 09:06 17,3 C 17,2 C 13,3 C 81 % 1021,1 hPa 0,0 l/m 2 min 0 min 268 W/m 9,7 km/h (2 Bft) 97,87 %
31.08.2022 09:08 17,4 C 17,2 C 13,3 C 81 % 1021,1 hPa 0,0 l/m 2 min 0 min 267 W/m 6,4 km/h (2 Bft) 95,74 %
31.08.2022 09:10 17,4 C 18,3 C 13,3 C 81 % 1021,2 hPa 0,0 l/m 2 min 0 min 274 W/m 19,3 km/h (3 Bft) 97,87 %
31.08.2022 09:12 17,5 C 18,3 C 13,3 C 80 % 1021,2 hPa 0,0 l/m 2 min 0 min 297 W/m 12,9 km/h (3 Bft) 97,87 %
31.08.2022 09:14 17,6 C 18,9 C 13,3 C 80 % 1021,2 hPa 0,0 l/m 2 min 0 min 284 W/m 9,7 km/h (2 Bft) 97,83 %
31.08.2022 09:16 17,6 C 18,9 C 13,9 C 80 % 1021,2 hPa 0,0 l/m 2 min 0 min 228 W/m 9,7 km/h (2 Bft) 93,62 %
31.08.2022 09:18 17,7 C 18,9 C 13,9 C 80 % 1021,2 hPa 0,0 l/m 2 min 0 min 272 W/m 12,9 km/h (3 Bft) 97,87 %
31.08.2022 09:20 17,8 C 18,9 C 13,9 C 80 % 1021,2 hPa 0,0 l/m 2 min 0 min 204 W/m 12,9 km/h (3 Bft) 97,87 %
31.08.2022 09:22 17,8 C 18,9 C 13,9 C 80 % 1021,2 hPa 0,0 l/m 2 min 0 min 199 W/m 9,7 km/h (2 Bft) 97,87 %
31.08.2022 09:24 17,9 C 18,9 C 13,9 C 80 % 1021,2 hPa 0,0 l/m 2 min 0 min 215 W/m 9,7 km/h (2 Bft) 97,87 %
31.08.2022 09:26 17,9 C 18,3 C 13,9 C 79 % 1021,2 hPa 0,0 l/m 2 min 0 min 222 W/m 12,9 km/h (3 Bft) 97,83 %
31.08.2022 09:28 18,1 C 18,3 C 13,9 C 79 % 1021,2 hPa 0,0 l/m 2 min 0 min 227 W/m 12,9 km/h (3 Bft) 97,87 %
31.08.2022 09:30 18,1 C 18,3 C 13,9 C 79 % 1021,2 hPa 0,0 l/m 0 min 0 min 136 W/m 6,4 km/h (2 Bft) 97,87 %
31.08.2022 09:32 18,2 C 18,3 C 14,4 C 78 % 1021,2 hPa 0,0 l/m 0 min 0 min 176 W/m 16,1 km/h (3 Bft) 100,00 %
31.08.2022 09:34 18,3 C 18,3 C 14,4 C 78 % 1021,2 hPa 0,0 l/m 0 min 0 min 197 W/m 16,1 km/h (3 Bft) 100,00 %
31.08.2022 09:36 18,3 C 18,3 C 14,4 C 78 % 1021,3 hPa 0,0 l/m 0 min 0 min 107 W/m 9,7 km/h (2 Bft) 98,28 %
31.08.2022 09:38 18,4 C 18,3 C 14,4 C 78 % 1021,2 hPa 0,0 l/m 0 min 0 min 92 W/m 25,7 km/h (4 Bft) 97,14 %
31.08.2022 09:40 18,4 C 18,3 C 14,4 C 77 % 1021,3 hPa 0,0 l/m 0 min 0 min 93 W/m 6,4 km/h (2 Bft) 97,87 %
31.08.2022 09:42 18,4 C 18,3 C 14,4 C 77 % 1021,2 hPa 0,0 l/m 0 min 0 min 96 W/m 12,9 km/h (3 Bft) 95,74 %
31.08.2022 09:44 18,4 C 18,3 C 14,4 C 77 % 1021,3 hPa 0,0 l/m 0 min 0 min 98 W/m 12,9 km/h (3 Bft) 100,00 %
31.08.2022 09:46 18,5 C 18,3 C 14,4 C 77 % 1021,2 hPa 0,0 l/m 0 min 0 min 104 W/m 12,9 km/h (3 Bft) 97,87 %
31.08.2022 09:48 18,5 C 18,3 C 14,4 C 77 % 1021,3 hPa 0,0 l/m 0 min 0 min 117 W/m 9,7 km/h (2 Bft) 100,00 %
31.08.2022 09:50 18,6 C 18,3 C 14,4 C 77 % 1021,2 hPa 0,0 l/m 0 min 0 min 115 W/m 12,9 km/h (3 Bft) 100,00 %
31.08.2022 09:52 18,6 C 18,9 C 14,4 C 77 % 1021,2 hPa 0,0 l/m 0 min 0 min 160 W/m 12,9 km/h (3 Bft) 95,74 %
31.08.2022 09:54 18,7 C 18,3 C 14,4 C 77 % 1021,3 hPa 0,0 l/m 0 min 0 min 112 W/m 19,3 km/h (3 Bft) 97,87 %
31.08.2022 09:56 18,7 C 18,9 C 14,4 C 77 % 1021,3 hPa 0,0 l/m 0 min 0 min 111 W/m 9,7 km/h (2 Bft) 97,87 %
31.08.2022 09:58 18,8 C 18,9 C 15,0 C 77 % 1021,3 hPa 0,0 l/m 0 min 0 min 118 W/m 9,7 km/h (2 Bft) 97,87 %
31.08.2022 10:00 18,8 C 18,9 C 15,0 C 77 % 1021,3 hPa 0,0 l/m 0 min 0 min 116 W/m 12,9 km/h (3 Bft) 97,87 %
31.08.2022 10:02 18,9 C 18,9 C 15,0 C 77 % 1021,4 hPa 0,0 l/m 0 min 0 min 128 W/m 9,7 km/h (2 Bft) 97,83 %
31.08.2022 10:04 18,9 C 19,4 C 15,0 C 77 % 1021,4 hPa 0,0 l/m 0 min 0 min 139 W/m 6,4 km/h (2 Bft) 97,92 %
31.08.2022 10:06 19,1 C 19,4 C 15,0 C 76 % 1021,5 hPa 0,0 l/m 0 min 0 min 160 W/m 12,9 km/h (3 Bft) 97,87 %
31.08.2022 10:08 19,1 C 18,9 C 15,0 C 75 % 1021,4 hPa 0,0 l/m 0 min 0 min 130 W/m 12,9 km/h (3 Bft) 97,87 %
31.08.2022 10:10 19,2 C 18,9 C 15,0 C 75 % 1021,4 hPa 0,0 l/m 0 min 0 min 126 W/m 16,1 km/h (3 Bft) 97,87 %
31.08.2022 10:12 19,2 C 18,9 C 15,0 C 75 % 1021,4 hPa 0,0 l/m 0 min 0 min 127 W/m 16,1 km/h (3 Bft) 97,87 %
31.08.2022 10:14 19,3 C 19,4 C 15,6 C 75 % 1021,4 hPa 0,0 l/m 0 min 0 min 141 W/m 9,7 km/h (2 Bft) 97,83 %
31.08.2022 10:16 19,4 C 19,4 C 15,6 C 75 % 1021,4 hPa 0,0 l/m 0 min 0 min 198 W/m 12,9 km/h (3 Bft) 97,87 %
31.08.2022 10:18 19,4 C 19,4 C 15,6 C 74 % 1021,5 hPa 0,0 l/m 0 min 0 min 229 W/m 12,9 km/h (3 Bft) 97,87 %
31.08.2022 10:20 19,6 C 20,0 C 15,6 C 74 % 1021,4 hPa 0,0 l/m 0 min 0 min 211 W/m 9,7 km/h (2 Bft) 95,74 %
31.08.2022 10:22 19,7 C 20,6 C 15,6 C 75 % 1021,4 hPa 0,0 l/m 0 min 0 min 205 W/m 9,7 km/h (2 Bft) 95,74 %
31.08.2022 10:24 19,7 C 21,1 C 16,1 C 74 % 1021,4 hPa 0,0 l/m 0 min 0 min 171 W/m 12,9 km/h (3 Bft) 97,83 %
31.08.2022 10:26 19,8 C 20,6 C 16,1 C 73 % 1021,4 hPa 0,0 l/m 2 min 0 min 285 W/m 16,1 km/h (3 Bft) 95,74 %
31.08.2022 10:28 19,9 C 21,1 C 16,1 C 73 % 1021,4 hPa 0,0 l/m 2 min 0 min 453 W/m 12,9 km/h (3 Bft) 97,87 %
31.08.2022 10:30 19,9 C 21,1 C 16,1 C 73 % 1021,4 hPa 0,0 l/m 0 min 0 min 257 W/m 19,3 km/h (3 Bft) 100,00 %
31.08.2022 10:32 20,0 C 21,1 C 16,1 C 73 % 1021,4 hPa 0,0 l/m 0 min 0 min 257 W/m 9,7 km/h (2 Bft) 97,87 %
31.08.2022 10:34 20,1 C 21,1 C 16,1 C 73 % 1021,4 hPa 0,0 l/m 2 min 0 min 449 W/m 12,9 km/h (3 Bft) 100,00 %
31.08.2022 10:36 20,1 C 21,1 C 16,1 C 72 % 1021,5 hPa 0,0 l/m 2 min 0 min 419 W/m 19,3 km/h (3 Bft) 100,00 %
31.08.2022 10:38 20,1 C 20,6 C 16,1 C 72 % 1021,5 hPa 0,0 l/m 2 min 0 min 540 W/m 12,9 km/h (3 Bft) 100,00 %
31.08.2022 10:40 20,2 C 20,6 C 16,1 C 72 % 1021,5 hPa 0,0 l/m 2 min 0 min 514 W/m 16,1 km/h (3 Bft) 100,00 %
31.08.2022 10:42 20,2 C 20,6 C 16,1 C 72 % 1021,5 hPa 0,0 l/m 2 min 0 min 418 W/m 12,9 km/h (3 Bft) 100,00 %
31.08.2022 10:44 20,3 C 20,6 C 16,1 C 71 % 1021,5 hPa 0,0 l/m 0 min 0 min 184 W/m 9,7 km/h (2 Bft) 100,00 %
31.08.2022 10:46 20,3 C 20,6 C 16,1 C 71 % 1021,4 hPa 0,0 l/m 0 min 0 min 217 W/m 16,1 km/h (3 Bft) 100,00 %
31.08.2022 10:48 20,3 C 20,6 C 16,1 C 71 % 1021,5 hPa 0,0 l/m 0 min 0 min 205 W/m 12,9 km/h (3 Bft) 97,83 %
31.08.2022 10:50 20,3 C 20,6 C 16,1 C 71 % 1021,5 hPa 0,0 l/m 0 min 0 min 212 W/m 19,3 km/h (3 Bft) 100,00 %
31.08.2022 10:52 20,3 C 21,1 C 16,1 C 71 % 1021,5 hPa 0,0 l/m 0 min 0 min 225 W/m 16,1 km/h (3 Bft) 100,00 %
31.08.2022 10:54 20,4 C 21,1 C 16,7 C 72 % 1021,5 hPa 0,0 l/m 0 min 0 min 204 W/m 12,9 km/h (3 Bft) 100,00 %
31.08.2022 10:56 20,6 C 21,1 C 16,7 C 71 % 1021,4 hPa 0,0 l/m 0 min 0 min 240 W/m 12,9 km/h (3 Bft) 97,87 %
31.08.2022 10:58 20,6 C 21,7 C 16,7 C 71 % 1021,5 hPa 0,0 l/m 0 min 0 min 226 W/m 19,3 km/h (3 Bft) 100,00 %
31.08.2022 11:00 20,7 C 21,7 C 16,7 C 70 % 1021,4 hPa 0,0 l/m 0 min 0 min 240 W/m 6,4 km/h (2 Bft) 97,87 %
31.08.2022 11:02 20,8 C 21,1 C 16,7 C 70 % 1021,5 hPa 0,0 l/m 0 min 0 min 225 W/m 12,9 km/h (3 Bft) 100,00 %
31.08.2022 11:04 20,8 C 21,1 C 16,7 C 70 % 1021,5 hPa 0,0 l/m 0 min 0 min 225 W/m 12,9 km/h (3 Bft) 100,00 %
31.08.2022 11:06 20,9 C 21,7 C 16,7 C 70 % 1021,4 hPa 0,0 l/m 2 min 0 min 357 W/m 16,1 km/h (3 Bft) 95,74 %
31.08.2022 11:08 20,9 C 21,1 C 16,7 C 70 % 1021,4 hPa 0,0 l/m 2 min 0 min 628 W/m 16,1 km/h (3 Bft) 100,00 %
31.08.2022 11:10 20,9 C 21,1 C 16,7 C 69 % 1021,4 hPa 0,0 l/m 2 min 0 min 540 W/m 12,9 km/h (3 Bft) 97,87 %
31.08.2022 11:12 20,9 C 21,1 C 16,7 C 70 % 1021,4 hPa 0,0 l/m 2 min 0 min 406 W/m 9,7 km/h (2 Bft) 100,00 %
31.08.2022 11:14 20,9 C 21,1 C 16,7 C 69 % 1021,4 hPa 0,0 l/m 2 min 0 min 482 W/m 19,3 km/h (3 Bft) 97,83 %
31.08.2022 11:16 20,9 C 21,1 C 16,7 C 69 % 1021,4 hPa 0,0 l/m 2 min 0 min 482 W/m 9,7 km/h (2 Bft) 100,00 %
31.08.2022 11:18 20,9 C 21,1 C 16,7 C 69 % 1021,4 hPa 0,0 l/m 0 min 0 min 288 W/m 16,1 km/h (3 Bft) 97,87 %
31.08.2022 11:20 20,8 C 20,6 C 16,7 C 69 % 1021,5 hPa 0,0 l/m 2 min 0 min 342 W/m 9,7 km/h (2 Bft) 97,87 %
31.08.2022 11:22 20,9 C 21,1 C 17,2 C 70 % 1021,4 hPa 0,0 l/m 2 min 0 min 506 W/m 16,1 km/h (3 Bft) 95,74 %
31.08.2022 11:24 20,9 C 21,1 C 17,2 C 69 % 1021,5 hPa 0,0 l/m 2 min 0 min 584 W/m 16,1 km/h (3 Bft) 93,62 %
31.08.2022 11:26 20,9 C 21,1 C 17,2 C 69 % 1021,5 hPa 0,0 l/m 2 min 0 min 635 W/m 16,1 km/h (3 Bft) 95,74 %
31.08.2022 11:28 21,0 C 21,7 C 17,2 C 70 % 1021,5 hPa 0,0 l/m 2 min 0 min 659 W/m 12,9 km/h (3 Bft) 95,65 %
31.08.2022 11:30 21,1 C 22,2 C 17,2 C 69 % 1021,4 hPa 0,0 l/m 2 min 0 min 675 W/m 12,9 km/h (3 Bft) 93,62 %
31.08.2022 11:32 21,2 C 23,3 C 17,8 C 70 % 1021,4 hPa 0,0 l/m 2 min 0 min 571 W/m 6,4 km/h (2 Bft) 95,74 %
31.08.2022 11:34 21,3 C 24,4 C 17,8 C 69 % 1021,5 hPa 0,0 l/m 2 min 0 min 423 W/m 12,9 km/h (3 Bft) 95,74 %
31.08.2022 11:38 21,6 C 23,9 C 18,3 C 69 % 1021,4 hPa 0,0 l/m 0 min 0 min 315 W/m 16,1 km/h (3 Bft) 95,74 %
31.08.2022 11:40 21,7 C 23,3 C 18,3 C 69 % 1021,4 hPa 0,0 l/m 2 min 0 min 670 W/m 16,1 km/h (3 Bft) 93,62 %
31.08.2022 11:42 21,8 C 23,3 C 18,3 C 68 % 1021,4 hPa 0,0 l/m 2 min 0 min 370 W/m 9,7 km/h (2 Bft) 95,65 %
31.08.2022 11:44 21,8 C 23,3 C 17,8 C 67 % 1021,4 hPa 0,0 l/m 0 min 0 min 311 W/m 9,7 km/h (2 Bft) 91,49 %
31.08.2022 11:46 21,7 C 23,3 C 18,3 C 66 % 1021,4 hPa 0,0 l/m 2 min 0 min 515 W/m 12,9 km/h (3 Bft) 93,62 %
31.08.2022 11:48 21,7 C 23,9 C 18,3 C 67 % 1021,4 hPa 0,0 l/m 2 min 0 min 503 W/m 12,9 km/h (3 Bft) 93,62 %
31.08.2022 11:50 21,7 C 25,0 C 18,9 C 67 % 1021,4 hPa 0,0 l/m 2 min 0 min 602 W/m 16,1 km/h (3 Bft) 95,74 %
31.08.2022 11:52 21,8 C 26,7 C 18,9 C 67 % 1021,3 hPa 0,0 l/m 2 min 0 min 702 W/m 12,9 km/h (3 Bft) 93,48 %
31.08.2022 11:54 21,9 C 27,2 C 18,9 C 67 % 1021,4 hPa 0,0 l/m 2 min 0 min 696 W/m 12,9 km/h (3 Bft) 93,75 %
31.08.2022 11:56 21,9 C 26,1 C 19,4 C 66 % 1021,4 hPa 0,0 l/m 2 min 0 min 682 W/m 19,3 km/h (3 Bft) 91,49 %
31.08.2022 11:58 21,9 C 26,7 C 20,0 C 66 % 1021,4 hPa 0,0 l/m 2 min 0 min 683 W/m 19,3 km/h (3 Bft) 93,62 %
31.08.2022 12:00 21,9 C 26,7 C 20,6 C 66 % 1021,4 hPa 0,0 l/m 2 min 0 min 688 W/m 19,3 km/h (3 Bft) 91,49 %
31.08.2022 12:02 21,9 C 27,8 C 20,6 C 66 % 1021,4 hPa 0,0 l/m 2 min 0 min 689 W/m 12,9 km/h (3 Bft) 91,49 %
31.08.2022 12:04 22,0 C 28,3 C 21,1 C 66 % 1021,4 hPa 0,0 l/m 2 min 0 min 681 W/m 16,1 km/h (3 Bft) 95,65 %
31.08.2022 12:08 22,2 C 29,4 C 22,2 C 66 % 1021,4 hPa 0,0 l/m 4 min 0 min 683 W/m 16,1 km/h (3 Bft) 95,24 %
31.08.2022 12:10 22,3 C 30,6 C 22,2 C 66 % 1021,4 hPa 0,0 l/m 2 min 0 min 699 W/m 9,7 km/h (2 Bft) 95,74 %
31.08.2022 12:12 22,4 C 30,0 C 22,2 C 65 % 1021,4 hPa 0,0 l/m 2 min 0 min 698 W/m 9,7 km/h (2 Bft) 95,74 %
31.08.2022 12:14 22,5 C 29,4 C 22,8 C 65 % 1021,4 hPa 0,0 l/m 2 min 0 min 696 W/m 12,9 km/h (3 Bft) 95,74 %
31.08.2022 12:16 22,6 C 29,4 C 22,2 C 65 % 1021,4 hPa 0,0 l/m 2 min 0 min 702 W/m 19,3 km/h (3 Bft) 95,74 %
31.08.2022 12:18 22,6 C 29,4 C 21,7 C 65 % 1021,4 hPa 0,0 l/m 2 min 0 min 704 W/m 12,9 km/h (3 Bft) 95,65 %
31.08.2022 12:20 22,7 C 30,0 C 22,2 C 65 % 1021,4 hPa 0,0 l/m 2 min 0 min 714 W/m 16,1 km/h (3 Bft) 93,62 %
31.08.2022 12:22 22,8 C 30,0 C 21,7 C 65 % 1021,3 hPa 0,0 l/m 2 min 0 min 705 W/m 16,1 km/h (3 Bft) 95,74 %
31.08.2022 12:24 22,9 C 30,0 C 21,1 C 64 % 1021,4 hPa 0,0 l/m 2 min 0 min 688 W/m 16,1 km/h (3 Bft) 97,87 %
31.08.2022 12:26 23,0 C 30,0 C 20,6 C 64 % 1021,4 hPa 0,0 l/m 2 min 0 min 696 W/m 12,9 km/h (3 Bft) 95,74 %
31.08.2022 12:28 23,1 C 29,4 C 20,6 C 64 % 1021,3 hPa 0,0 l/m 2 min 0 min 708 W/m 12,9 km/h (3 Bft) 97,87 %
31.08.2022 12:30 23,1 C 29,4 C 20,0 C 64 % 1021,3 hPa 0,0 l/m 2 min 0 min 724 W/m 12,9 km/h (3 Bft) 97,83 %
31.08.2022 12:32 23,2 C 29,4 C 20,0 C 64 % 1021,3 hPa 0,0 l/m 2 min 0 min 730 W/m 6,4 km/h (2 Bft) 97,87 %
31.08.2022 12:34 23,3 C 27,8 C 19,4 C 64 % 1021,3 hPa 0,0 l/m 2 min 0 min 737 W/m 12,9 km/h (3 Bft) 100,00 %
31.08.2022 12:36 23,4 C 27,2 C 19,4 C 64 % 1021,3 hPa 0,0 l/m 2 min 0 min 742 W/m 16,1 km/h (3 Bft) 100,00 %
31.08.2022 12:38 23,4 C 25,6 C 19,4 C 63 % 1021,3 hPa 0,0 l/m 2 min 0 min 759 W/m 16,1 km/h (3 Bft) 100,00 %
31.08.2022 12:40 23,5 C 25,6 C 19,4 C 63 % 1021,3 hPa 0,0 l/m 2 min 0 min 781 W/m 9,7 km/h (2 Bft) 100,00 %
31.08.2022 12:42 23,6 C 25,6 C 19,4 C 63 % 1021,3 hPa 0,0 l/m 2 min 0 min 796 W/m 12,9 km/h (3 Bft) 100,00 %
31.08.2022 12:44 23,6 C 25,0 C 19,4 C 62 % 1021,3 hPa 0,0 l/m 2 min 0 min 748 W/m 12,9 km/h (3 Bft) 100,00 %
31.08.2022 12:46 23,7 C 24,4 C 19,4 C 63 % 1021,3 hPa 0,0 l/m 2 min 0 min 494 W/m 19,3 km/h (3 Bft) 100,00 %
31.08.2022 12:48 23,7 C 23,9 C 19,4 C 62 % 1021,3 hPa 0,0 l/m 2 min 0 min 750 W/m 12,9 km/h (3 Bft) 100,00 %
31.08.2022 12:50 23,7 C 23,9 C 19,4 C 62 % 1021,2 hPa 0,0 l/m 2 min 0 min 711 W/m 22,5 km/h (4 Bft) 95,74 %
31.08.2022 12:52 23,7 C 23,9 C 19,4 C 62 % 1021,2 hPa 0,0 l/m 2 min 0 min 383 W/m 12,9 km/h (3 Bft) 100,00 %
31.08.2022 12:54 23,7 C 23,9 C 19,4 C 62 % 1021,2 hPa 0,0 l/m 2 min 0 min 671 W/m 16,1 km/h (3 Bft) 100,00 %
31.08.2022 12:56 23,8 C 24,4 C 19,4 C 62 % 1021,2 hPa 0,0 l/m 2 min 0 min 629 W/m 9,7 km/h (2 Bft) 97,87 %
31.08.2022 12:58 23,8 C 24,4 C 19,4 C 62 % 1021,3 hPa 0,0 l/m 2 min 0 min 410 W/m 12,9 km/h (3 Bft) 100,00 %
31.08.2022 13:00 23,9 C 23,9 C 19,4 C 62 % 1021,3 hPa 0,0 l/m 2 min 0 min 383 W/m 16,1 km/h (3 Bft) 97,87 %
31.08.2022 13:02 23,8 C 23,9 C 19,4 C 62 % 1021,2 hPa 0,0 l/m 0 min 0 min 302 W/m 12,9 km/h (3 Bft) 100,00 %
31.08.2022 13:04 23,8 C 23,9 C 19,4 C 61 % 1021,2 hPa 0,0 l/m 0 min 0 min 293 W/m 12,9 km/h (3 Bft) 97,87 %
31.08.2022 13:06 23,8 C 23,9 C 19,4 C 62 % 1021,3 hPa 0,0 l/m 0 min 0 min 305 W/m 16,1 km/h (3 Bft) 100,00 %
31.08.2022 13:08 23,8 C 23,9 C 19,4 C 62 % 1021,3 hPa 0,0 l/m 0 min 0 min 293 W/m 16,1 km/h (3 Bft) 97,14 %
31.08.2022 13:10 23,8 C 24,4 C 20,0 C 63 % 1021,3 hPa 0,0 l/m 0 min 0 min 265 W/m 12,9 km/h (3 Bft) 100,00 %
31.08.2022 13:12 23,9 C 24,4 C 20,0 C 61 % 1021,3 hPa 0,0 l/m 0 min 0 min 222 W/m 12,9 km/h (3 Bft) 97,87 %
31.08.2022 13:14 23,9 C 24,4 C 20,0 C 62 % 1021,2 hPa 0,0 l/m 0 min 0 min 213 W/m 9,7 km/h (2 Bft) 100,00 %
31.08.2022 13:16 24,0 C 25,0 C 20,0 C 62 % 1021,3 hPa 0,0 l/m 0 min 0 min 238 W/m 6,4 km/h (2 Bft) 100,00 %
31.08.2022 13:18 24,1 C 25,0 C 20,0 C 63 % 1021,2 hPa 0,0 l/m 2 min 0 min 404 W/m 16,1 km/h (3 Bft) 97,83 %
31.08.2022 13:20 24,2 C 25,0 C 20,0 C 62 % 1021,2 hPa 0,0 l/m 2 min 0 min 586 W/m 16,1 km/h (3 Bft) 100,00 %
31.08.2022 13:22 24,2 C 25,0 C 20,0 C 61 % 1021,2 hPa 0,0 l/m 2 min 0 min 512 W/m 22,5 km/h (4 Bft) 100,00 %
31.08.2022 13:24 24,3 C 25,0 C 20,6 C 62 % 1021,2 hPa 0,0 l/m 0 min 0 min 335 W/m 12,9 km/h (3 Bft) 100,00 %
31.08.2022 13:26 24,4 C 25,0 C 20,0 C 61 % 1021,2 hPa 0,0 l/m 0 min 0 min 293 W/m 12,9 km/h (3 Bft) 97,87 %
31.08.2022 13:28 24,4 C 24,4 C 20,0 C 60 % 1021,2 hPa 0,0 l/m 0 min 0 min 241 W/m 12,9 km/h (3 Bft) 100,00 %
31.08.2022 13:30 24,3 C 23,9 C 20,0 C 60 % 1021,1 hPa 0,0 l/m 0 min 0 min 348 W/m 12,9 km/h (3 Bft) 100,00 %
31.08.2022 13:32 24,3 C 24,4 C 20,0 C 61 % 1021,2 hPa 0,0 l/m 2 min 0 min 654 W/m 19,3 km/h (3 Bft) 100,00 %
31.08.2022 13:34 24,3 C 24,4 C 20,0 C 60 % 1021,1 hPa 0,0 l/m 2 min 0 min 705 W/m 12,9 km/h (3 Bft) 100,00 %
31.08.2022 13:36 24,3 C 24,4 C 20,0 C 61 % 1021,1 hPa 0,0 l/m 2 min 0 min 726 W/m 16,1 km/h (3 Bft) 100,00 %
31.08.2022 13:38 24,3 C 25,6 C 20,6 C 61 % 1021,2 hPa 0,0 l/m 2 min 0 min 818 W/m 12,9 km/h (3 Bft) 100,00 %
31.08.2022 13:40 24,5 C 25,6 C 20,6 C 61 % 1021,1 hPa 0,0 l/m 2 min 0 min 835 W/m 9,7 km/h (2 Bft) 100,00 %
31.08.2022 13:42 24,6 C 25,6 C 20,6 C 61 % 1021,1 hPa 0,0 l/m 2 min 0 min 660 W/m 9,7 km/h (2 Bft) 95,65 %
31.08.2022 13:44 24,7 C 25,6 C 20,6 C 61 % 1021,1 hPa 0,0 l/m 2 min 0 min 558 W/m 12,9 km/h (3 Bft) 97,87 %
31.08.2022 13:46 24,6 C 25,0 C 20,0 C 60 % 1021,1 hPa 0,0 l/m 0 min 0 min 265 W/m 9,7 km/h (2 Bft) 95,92 %
31.08.2022 13:48 24,6 C 25,0 C 20,0 C 60 % 1021,0 hPa 0,0 l/m 0 min 0 min 265 W/m 6,4 km/h (2 Bft) 100,00 %
31.08.2022 13:50 24,6 C 25,0 C 20,0 C 61 % 1021,0 hPa 0,0 l/m 0 min 0 min 303 W/m 9,7 km/h (2 Bft) 97,87 %
31.08.2022 13:52 24,5 C 25,0 C 20,0 C 61 % 1021,0 hPa 0,0 l/m 0 min 0 min 295 W/m 9,7 km/h (2 Bft) 97,87 %
31.08.2022 13:54 24,4 C 24,4 C 20,0 C 61 % 1021,0 hPa 0,0 l/m 0 min 0 min 316 W/m 19,3 km/h (3 Bft) 97,87 %
31.08.2022 13:56 24,4 C 25,0 C 20,0 C 62 % 1021,0 hPa 0,0 l/m 0 min 0 min 309 W/m 12,9 km/h (3 Bft) 95,74 %
31.08.2022 13:58 24,4 C 26,1 C 20,0 C 62 % 1021,0 hPa 0,0 l/m 2 min 0 min 359 W/m 12,9 km/h (3 Bft) 93,62 %
31.08.2022 14:00 24,5 C 27,8 C 20,6 C 62 % 1021,0 hPa 0,0 l/m 2 min 0 min 572 W/m 9,7 km/h (2 Bft) 93,48 %
31.08.2022 14:02 24,7 C 28,9 C 20,6 C 62 % 1021,0 hPa 0,0 l/m 2 min 0 min 724 W/m 9,7 km/h (2 Bft) 95,74 %
31.08.2022 14:04 24,8 C 28,9 C 20,6 C 62 % 1020,9 hPa 0,0 l/m 2 min 0 min 716 W/m 9,7 km/h (2 Bft) 97,87 %
31.08.2022 14:06 24,9 C 27,8 C 20,6 C 61 % 1020,9 hPa 0,0 l/m 2 min 0 min 365 W/m 22,5 km/h (4 Bft) 93,62 %
31.08.2022 14:08 24,9 C 26,7 C 20,6 C 61 % 1021,0 hPa 0,0 l/m 0 min 0 min 349 W/m 9,7 km/h (2 Bft) 95,74 %
31.08.2022 14:10 24,9 C 26,1 C 20,6 C 60 % 1020,9 hPa 0,0 l/m 0 min 0 min 312 W/m 19,3 km/h (3 Bft) 91,49 %
31.08.2022 14:12 24,8 C 25,6 C 20,6 C 61 % 1020,9 hPa 0,0 l/m 0 min 0 min 304 W/m 16,1 km/h (3 Bft) 95,65 %
31.08.2022 14:14 24,8 C 25,0 C 20,0 C 61 % 1020,8 hPa 0,0 l/m 0 min 0 min 292 W/m 12,9 km/h (3 Bft) 95,74 %
31.08.2022 14:16 24,7 C 25,0 C 20,0 C 61 % 1020,9 hPa 0,0 l/m 0 min 0 min 266 W/m 9,7 km/h (2 Bft) 95,74 %
31.08.2022 14:18 24,6 C 24,4 C 20,0 C 61 % 1020,9 hPa 0,0 l/m 0 min 0 min 278 W/m 12,9 km/h (3 Bft) 95,74 %
31.08.2022 14:20 24,6 C 25,0 C 20,0 C 61 % 1020,8 hPa 0,0 l/m 0 min 0 min 297 W/m 9,7 km/h (2 Bft) 93,62 %
31.08.2022 14:22 24,6 C 25,0 C 20,0 C 61 % 1020,9 hPa 0,0 l/m 0 min 0 min 279 W/m 9,7 km/h (2 Bft) 93,62 %
31.08.2022 14:24 24,5 C 25,0 C 20,0 C 62 % 1020,8 hPa 0,0 l/m 0 min 0 min 282 W/m 9,7 km/h (2 Bft) 91,30 %
31.08.2022 14:26 24,5 C 25,0 C 20,0 C 62 % 1020,8 hPa 0,0 l/m 0 min 0 min 329 W/m 16,1 km/h (3 Bft) 97,87 %
31.08.2022 14:28 24,5 C 25,0 C 20,0 C 61 % 1020,8 hPa 0,0 l/m 0 min 0 min 330 W/m 16,1 km/h (3 Bft) 93,62 %
31.08.2022 14:30 24,4 C 24,4 C 20,0 C 61 % 1020,8 hPa 0,0 l/m 0 min 0 min 269 W/m 16,1 km/h (3 Bft) 97,87 %
31.08.2022 14:32 24,4 C 24,4 C 20,0 C 61 % 1020,8 hPa 0,0 l/m 0 min 0 min 276 W/m 12,9 km/h (3 Bft) 97,87 %
31.08.2022 14:34 24,4 C 24,4 C 20,0 C 61 % 1020,7 hPa 0,0 l/m 0 min 0 min 267 W/m 16,1 km/h (3 Bft) 97,87 %
31.08.2022 14:36 24,4 C 24,4 C 20,0 C 61 % 1020,7 hPa 0,0 l/m 0 min 0 min 270 W/m 12,9 km/h (3 Bft) 100,00 %
31.08.2022 14:38 24,4 C 25,0 C 20,0 C 61 % 1020,7 hPa 0,0 l/m 0 min 0 min 330 W/m 16,1 km/h (3 Bft) 100,00 %
31.08.2022 14:40 24,4 C 25,0 C 20,6 C 62 % 1020,7 hPa 0,0 l/m 2 min 0 min 360 W/m 9,7 km/h (2 Bft) 95,74 %
31.08.2022 14:42 24,4 C 25,0 C 20,6 C 61 % 1020,7 hPa 0,0 l/m 2 min 0 min 382 W/m 9,7 km/h (2 Bft) 95,74 %
31.08.2022 14:44 24,5 C 25,6 C 20,6 C 62 % 1020,7 hPa 0,0 l/m 2 min 0 min 355 W/m 9,7 km/h (2 Bft) 97,87 %
31.08.2022 14:46 24,6 C 26,1 C 20,6 C 62 % 1020,7 hPa 0,0 l/m 2 min 0 min 355 W/m 9,7 km/h (2 Bft) 97,87 %
31.08.2022 14:48 24,6 C 27,8 C 20,6 C 62 % 1020,7 hPa 0,0 l/m 2 min 0 min 628 W/m 6,4 km/h (2 Bft) 97,83 %
31.08.2022 14:50 24,7 C 28,3 C 20,6 C 61 % 1020,7 hPa 0,0 l/m 2 min 0 min 770 W/m 19,3 km/h (3 Bft) 93,62 %
31.08.2022 14:52 24,8 C 28,3 C 20,6 C 61 % 1020,7 hPa 0,0 l/m 2 min 0 min 784 W/m 12,9 km/h (3 Bft) 97,87 %
31.08.2022 14:54 24,9 C 28,3 C 20,6 C 60 % 1020,7 hPa 0,0 l/m 2 min 0 min 772 W/m 32,2 km/h (5 Bft) 97,87 %
31.08.2022 14:56 25,0 C 28,3 C 20,6 C 60 % 1020,6 hPa 0,0 l/m 2 min 0 min 761 W/m 12,9 km/h (3 Bft) 97,87 %
31.08.2022 14:58 25,1 C 27,2 C 20,6 C 60 % 1020,6 hPa 0,0 l/m 2 min 0 min 486 W/m 12,9 km/h (3 Bft) 97,87 %
31.08.2022 15:00 25,1 C 26,1 C 20,6 C 60 % 1020,6 hPa 0,0 l/m 0 min 0 min 230 W/m 19,3 km/h (3 Bft) 97,83 %
31.08.2022 15:02 24,9 C 25,6 C 20,6 C 60 % 1020,5 hPa 0,0 l/m 0 min 0 min 219 W/m 12,9 km/h (3 Bft) 97,87 %
31.08.2022 15:04 24,8 C 25,0 C 20,0 C 60 % 1020,5 hPa 0,0 l/m 0 min 0 min 199 W/m 16,1 km/h (3 Bft) 97,87 %
31.08.2022 15:06 24,8 C 25,0 C 20,0 C 60 % 1020,4 hPa 0,0 l/m 0 min 0 min 237 W/m 12,9 km/h (3 Bft) 95,74 %
31.08.2022 15:08 24,7 C 25,0 C 20,0 C 60 % 1020,5 hPa 0,0 l/m 0 min 0 min 277 W/m 22,5 km/h (4 Bft) 97,87 %
31.08.2022 15:10 24,7 C 25,6 C 20,6 C 61 % 1020,5 hPa 0,0 l/m 2 min 0 min 407 W/m 22,5 km/h (4 Bft) 97,87 %
31.08.2022 15:12 24,8 C 26,1 C 20,6 C 61 % 1020,5 hPa 0,0 l/m 2 min 0 min 780 W/m 22,5 km/h (4 Bft) 97,83 %
31.08.2022 15:14 24,9 C 25,6 C 20,6 C 60 % 1020,6 hPa 0,0 l/m 2 min 0 min 360 W/m 22,5 km/h (4 Bft) 97,87 %
31.08.2022 15:16 24,8 C 25,6 C 20,6 C 60 % 1020,5 hPa 0,0 l/m 0 min 0 min 322 W/m 12,9 km/h (3 Bft) 97,87 %
31.08.2022 15:18 24,8 C 25,6 C 20,6 C 61 % 1020,5 hPa 0,0 l/m 0 min 0 min 313 W/m 12,9 km/h (3 Bft) 97,87 %
31.08.2022 15:20 24,8 C 25,6 C 20,6 C 61 % 1020,4 hPa 0,0 l/m 0 min 0 min 319 W/m 12,9 km/h (3 Bft) 97,87 %
31.08.2022 15:22 24,8 C 25,0 C 20,6 C 60 % 1020,4 hPa 0,0 l/m 0 min 0 min 298 W/m 19,3 km/h (3 Bft) 97,83 %
31.08.2022 15:24 24,8 C 25,0 C 20,0 C 61 % 1020,5 hPa 0,0 l/m 0 min 0 min 315 W/m 12,9 km/h (3 Bft) 97,87 %
31.08.2022 15:26 24,7 C 25,0 C 20,0 C 61 % 1020,4 hPa 0,0 l/m 0 min 0 min 245 W/m 29,0 km/h (5 Bft) 97,87 %
31.08.2022 15:28 24,7 C 25,0 C 20,0 C 61 % 1020,5 hPa 0,0 l/m 2 min 0 min 338 W/m 16,1 km/h (3 Bft) 97,87 %
31.08.2022 15:30 24,7 C 25,0 C 20,6 C 62 % 1020,4 hPa 0,0 l/m 0 min 0 min 297 W/m 9,7 km/h (2 Bft) 97,87 %
31.08.2022 15:32 24,7 C 25,0 C 20,6 C 61 % 1020,4 hPa 0,0 l/m 0 min 0 min 265 W/m 19,3 km/h (3 Bft) 97,87 %
31.08.2022 15:34 24,7 C 25,0 C 20,6 C 61 % 1020,4 hPa 0,0 l/m 0 min 0 min 231 W/m 16,1 km/h (3 Bft) 97,87 %
31.08.2022 15:36 24,7 C 24,4 C 20,6 C 61 % 1020,4 hPa 0,0 l/m 0 min 0 min 205 W/m 12,9 km/h (3 Bft) 97,83 %
31.08.2022 15:38 24,7 C 24,4 C 20,0 C 61 % 1020,4 hPa 0,0 l/m 0 min 0 min 219 W/m 12,9 km/h (3 Bft) 95,74 %
31.08.2022 15:40 24,6 C 24,4 C 20,0 C 61 % 1020,3 hPa 0,0 l/m 0 min 0 min 241 W/m 12,9 km/h (3 Bft) 97,87 %
31.08.2022 15:42 24,6 C 24,4 C 20,6 C 61 % 1020,3 hPa 0,0 l/m 0 min 0 min 251 W/m 9,7 km/h (2 Bft) 100,00 %
31.08.2022 15:44 24,6 C 24,4 C 20,6 C 61 % 1020,4 hPa 0,0 l/m 0 min 0 min 255 W/m 9,7 km/h (2 Bft) 100,00 %
31.08.2022 15:46 24,6 C 24,4 C 20,6 C 61 % 1020,3 hPa 0,0 l/m 0 min 0 min 262 W/m 16,1 km/h (3 Bft) 100,00 %
31.08.2022 15:48 24,6 C 24,4 C 20,6 C 61 % 1020,3 hPa 0,0 l/m 0 min 0 min 256 W/m 19,3 km/h (3 Bft) 97,83 %
31.08.2022 15:50 24,6 C 24,4 C 20,0 C 61 % 1020,3 hPa 0,0 l/m 0 min 0 min 236 W/m 16,1 km/h (3 Bft) 100,00 %
31.08.2022 15:52 24,6 C 24,4 C 20,0 C 61 % 1020,4 hPa 0,0 l/m 0 min 0 min 231 W/m 9,7 km/h (2 Bft) 100,00 %
31.08.2022 15:54 24,6 C 24,4 C 20,0 C 61 % 1020,3 hPa 0,0 l/m 0 min 0 min 218 W/m 16,1 km/h (3 Bft) 100,00 %
31.08.2022 15:56 24,5 C 24,4 C 20,0 C 62 % 1020,4 hPa 0,0 l/m 0 min 0 min 212 W/m 19,3 km/h (3 Bft) 100,00 %
31.08.2022 15:58 24,4 C 24,4 C 20,0 C 62 % 1020,4 hPa 0,0 l/m 0 min 0 min 205 W/m 9,7 km/h (2 Bft) 97,83 %
31.08.2022 16:00 24,4 C 24,4 C 20,0 C 62 % 1020,3 hPa 0,0 l/m 0 min 0 min 204 W/m 12,9 km/h (3 Bft) 97,87 %
31.08.2022 16:02 24,4 C 24,4 C 20,0 C 62 % 1020,3 hPa 0,0 l/m 0 min 0 min 200 W/m 22,5 km/h (4 Bft) 97,87 %
31.08.2022 16:04 24,4 C 24,4 C 20,0 C 62 % 1020,3 hPa 0,0 l/m 0 min 0 min 200 W/m 19,3 km/h (3 Bft) 95,74 %
31.08.2022 16:06 24,4 C 24,4 C 20,0 C 62 % 1020,3 hPa 0,0 l/m 0 min 0 min 205 W/m 19,3 km/h (3 Bft) 97,87 %
31.08.2022 16:08 24,4 C 24,4 C 20,0 C 62 % 1020,3 hPa 0,0 l/m 0 min 0 min 207 W/m 16,1 km/h (3 Bft) 97,87 %
31.08.2022 16:10 24,4 C 24,4 C 20,0 C 62 % 1020,3 hPa 0,0 l/m 0 min 0 min 209 W/m 9,7 km/h (2 Bft) 97,87 %
31.08.2022 16:12 24,4 C 24,4 C 20,0 C 62 % 1020,3 hPa 0,0 l/m 0 min 0 min 206 W/m 9,7 km/h (2 Bft) 97,83 %
31.08.2022 16:14 24,4 C 24,4 C 20,0 C 62 % 1020,2 hPa 0,0 l/m 0 min 0 min 202 W/m 9,7 km/h (2 Bft) 95,74 %
31.08.2022 16:16 24,4 C 24,4 C 20,0 C 62 % 1020,2 hPa 0,0 l/m 0 min 0 min 203 W/m 16,1 km/h (3 Bft) 97,87 %
31.08.2022 16:18 24,4 C 24,4 C 20,0 C 61 % 1020,2 hPa 0,0 l/m 0 min 0 min 213 W/m 9,7 km/h (2 Bft) 97,87 %
31.08.2022 16:20 24,4 C 25,0 C 20,0 C 61 % 1020,1 hPa 0,0 l/m 0 min 0 min 242 W/m 12,9 km/h (3 Bft) 97,87 %
31.08.2022 16:22 24,5 C 25,0 C 20,0 C 61 % 1020,2 hPa 0,0 l/m 0 min 0 min 269 W/m 6,4 km/h (2 Bft) 97,83 %
31.08.2022 16:24 24,6 C 25,6 C 20,6 C 61 % 1020,2 hPa 0,0 l/m 2 min 0 min 344 W/m 19,3 km/h (3 Bft) 97,87 %
31.08.2022 16:26 24,6 C 25,6 C 20,6 C 61 % 1020,1 hPa 0,0 l/m 2 min 0 min 321 W/m 12,9 km/h (3 Bft) 95,74 %
31.08.2022 16:28 24,7 C 26,1 C 20,6 C 61 % 1020,2 hPa 0,0 l/m 2 min 0 min 288 W/m 12,9 km/h (3 Bft) 93,62 %
31.08.2022 16:30 24,8 C 26,1 C 20,6 C 62 % 1020,1 hPa 0,0 l/m 2 min 0 min 323 W/m 9,7 km/h (2 Bft) 95,74 %
31.08.2022 16:32 24,9 C 27,2 C 21,1 C 61 % 1020,1 hPa 0,0 l/m 2 min 0 min 401 W/m 6,4 km/h (2 Bft) 95,74 %
31.08.2022 16:34 25,0 C 27,2 C 21,1 C 61 % 1020,1 hPa 0,0 l/m 2 min 0 min 531 W/m 12,9 km/h (3 Bft) 97,87 %
31.08.2022 16:36 25,2 C 27,8 C 21,1 C 60 % 1020,0 hPa 0,0 l/m 2 min 0 min 659 W/m 16,1 km/h (3 Bft) 97,83 %
31.08.2022 16:38 25,2 C 27,8 C 21,7 C 60 % 1020,0 hPa 0,0 l/m 2 min 0 min 662 W/m 16,1 km/h (3 Bft) 97,87 %
31.08.2022 16:40 25,4 C 28,3 C 21,7 C 60 % 1020,0 hPa 0,0 l/m 2 min 0 min 660 W/m 6,4 km/h (2 Bft) 97,87 %
31.08.2022 16:42 25,6 C 28,3 C 21,7 C 59 % 1019,9 hPa 0,0 l/m 2 min 0 min 674 W/m 16,1 km/h (3 Bft) 97,87 %
31.08.2022 16:44 25,8 C 28,3 C 21,7 C 60 % 1019,9 hPa 0,0 l/m 2 min 0 min 661 W/m 12,9 km/h (3 Bft) 97,87 %
31.08.2022 16:46 25,9 C 28,3 C 21,7 C 59 % 1020,0 hPa 0,0 l/m 2 min 0 min 624 W/m 19,3 km/h (3 Bft) 95,74 %
31.08.2022 16:48 26,0 C 27,8 C 21,7 C 58 % 1019,9 hPa 0,0 l/m 2 min 0 min 465 W/m 9,7 km/h (2 Bft) 97,83 %
31.08.2022 16:50 26,0 C 27,2 C 21,7 C 58 % 1019,9 hPa 0,0 l/m 0 min 0 min 221 W/m 22,5 km/h (4 Bft) 97,87 %
31.08.2022 16:52 25,9 C 26,1 C 21,1 C 58 % 1019,9 hPa 0,0 l/m 0 min 0 min 185 W/m 19,3 km/h (3 Bft) 95,74 %
31.08.2022 16:54 25,7 C 26,1 C 21,1 C 58 % 1019,9 hPa 0,0 l/m 0 min 0 min 207 W/m 9,7 km/h (2 Bft) 97,87 %
31.08.2022 16:56 25,6 C 25,6 C 20,6 C 59 % 1019,9 hPa 0,0 l/m 0 min 0 min 188 W/m 22,5 km/h (4 Bft) 97,87 %
31.08.2022 16:58 25,5 C 25,0 C 20,6 C 59 % 1019,9 hPa 0,0 l/m 0 min 0 min 200 W/m 12,9 km/h (3 Bft) 97,83 %
31.08.2022 17:00 25,4 C 25,0 C 20,6 C 59 % 1019,9 hPa 0,0 l/m 0 min 0 min 197 W/m 6,4 km/h (2 Bft) 97,87 %
31.08.2022 17:02 25,3 C 25,0 C 20,6 C 59 % 1019,9 hPa 0,0 l/m 0 min 0 min 196 W/m 12,9 km/h (3 Bft) 97,87 %
31.08.2022 17:04 25,2 C 25,0 C 20,6 C 59 % 1020,0 hPa 0,0 l/m 0 min 0 min 205 W/m 9,7 km/h (2 Bft) 95,74 %
31.08.2022 17:06 25,2 C 25,0 C 20,6 C 60 % 1020,0 hPa 0,0 l/m 0 min 0 min 209 W/m 6,4 km/h (2 Bft) 100,00 %
31.08.2022 17:08 25,2 C 25,0 C 20,6 C 59 % 1020,0 hPa 0,0 l/m 0 min 0 min 203 W/m 9,7 km/h (2 Bft) 100,00 %
31.08.2022 17:10 25,2 C 25,6 C 20,6 C 59 % 1020,0 hPa 0,0 l/m 2 min 0 min 258 W/m 16,1 km/h (3 Bft) 97,83 %
31.08.2022 17:12 25,2 C 25,6 C 20,6 C 59 % 1020,0 hPa 0,0 l/m 2 min 0 min 235 W/m 12,9 km/h (3 Bft) 100,00 %
31.08.2022 17:14 25,2 C 25,6 C 20,6 C 59 % 1020,0 hPa 0,0 l/m 0 min 0 min 187 W/m 9,7 km/h (2 Bft) 97,87 %
31.08.2022 17:16 25,1 C 25,0 C 20,6 C 59 % 1019,9 hPa 0,0 l/m 0 min 0 min 184 W/m 12,9 km/h (3 Bft) 100,00 %
31.08.2022 17:18 25,1 C 25,0 C 20,6 C 59 % 1019,9 hPa 0,0 l/m 0 min 0 min 192 W/m 12,9 km/h (3 Bft) 100,00 %
31.08.2022 17:20 25,1 C 26,1 C 20,6 C 59 % 1020,0 hPa 0,0 l/m 2 min 0 min 243 W/m 6,4 km/h (2 Bft) 100,00 %
31.08.2022 17:22 25,1 C 26,1 C 20,6 C 59 % 1019,9 hPa 0,0 l/m 2 min 0 min 346 W/m 12,9 km/h (3 Bft) 100,00 %
31.08.2022 17:24 25,1 C 26,7 C 21,1 C 59 % 1019,9 hPa 0,0 l/m 2 min 0 min 309 W/m 19,3 km/h (3 Bft) 100,00 %
31.08.2022 17:26 25,2 C 27,2 C 21,1 C 58 % 1020,0 hPa 0,0 l/m 2 min 0 min 492 W/m 16,1 km/h (3 Bft) 97,87 %
31.08.2022 17:28 25,2 C 27,2 C 21,1 C 58 % 1019,9 hPa 0,0 l/m 2 min 0 min 454 W/m 12,9 km/h (3 Bft) 100,00 %
31.08.2022 17:30 25,2 C 27,8 C 21,1 C 58 % 1019,9 hPa 0,0 l/m 2 min 0 min 455 W/m 12,9 km/h (3 Bft) 100,00 %
31.08.2022 17:32 25,3 C 27,8 C 21,1 C 58 % 1019,9 hPa 0,0 l/m 2 min 0 min 482 W/m 9,7 km/h (2 Bft) 100,00 %
31.08.2022 17:34 25,4 C 27,8 C 21,1 C 57 % 1019,9 hPa 0,0 l/m 2 min 0 min 493 W/m 16,1 km/h (3 Bft) 100,00 %
31.08.2022 17:36 25,5 C 28,3 C 21,7 C 57 % 1019,9 hPa 0,0 l/m 2 min 0 min 492 W/m 12,9 km/h (3 Bft) 100,00 %
31.08.2022 17:38 25,6 C 28,3 C 21,7 C 57 % 1019,9 hPa 0,0 l/m 2 min 0 min 464 W/m 12,9 km/h (3 Bft) 100,00 %
31.08.2022 17:40 25,6 C 28,3 C 21,7 C 56 % 1019,8 hPa 0,0 l/m 2 min 0 min 432 W/m 12,9 km/h (3 Bft) 100,00 %
31.08.2022 17:42 25,7 C 28,3 C 21,7 C 56 % 1019,8 hPa 0,0 l/m 2 min 0 min 406 W/m 12,9 km/h (3 Bft) 100,00 %
31.08.2022 17:44 25,7 C 28,3 C 21,7 C 56 % 1019,9 hPa 0,0 l/m 2 min 0 min 387 W/m 12,9 km/h (3 Bft) 97,87 %
31.08.2022 17:46 25,8 C 28,9 C 21,7 C 56 % 1019,8 hPa 0,0 l/m 2 min 0 min 395 W/m 12,9 km/h (3 Bft) 100,00 %
31.08.2022 17:48 25,8 C 28,9 C 21,7 C 56 % 1019,8 hPa 0,0 l/m 2 min 0 min 380 W/m 12,9 km/h (3 Bft) 97,87 %
31.08.2022 17:50 25,8 C 27,8 C 21,1 C 56 % 1019,8 hPa 0,0 l/m 2 min 0 min 306 W/m 22,5 km/h (4 Bft) 100,00 %
31.08.2022 17:52 25,8 C 26,7 C 21,1 C 56 % 1019,8 hPa 0,0 l/m 2 min 0 min 240 W/m 16,1 km/h (3 Bft) 97,87 %
31.08.2022 17:54 25,7 C 26,7 C 21,1 C 56 % 1019,7 hPa 0,0 l/m 2 min 0 min 220 W/m 12,9 km/h (3 Bft) 100,00 %
31.08.2022 17:56 25,6 C 26,7 C 20,6 C 56 % 1019,7 hPa 0,0 l/m 2 min 0 min 302 W/m 19,3 km/h (3 Bft) 97,87 %
31.08.2022 17:58 25,5 C 26,7 C 20,6 C 56 % 1019,7 hPa 0,0 l/m 2 min 0 min 283 W/m 12,9 km/h (3 Bft) 100,00 %
31.08.2022 18:00 25,4 C 26,1 C 20,6 C 56 % 1019,7 hPa 0,0 l/m 2 min 0 min 181 W/m 16,1 km/h (3 Bft) 97,87 %
31.08.2022 18:02 25,4 C 25,6 C 20,6 C 57 % 1019,8 hPa 0,0 l/m 0 min 0 min 111 W/m 16,1 km/h (3 Bft) 95,74 %
31.08.2022 18:04 25,3 C 25,6 C 20,6 C 57 % 1019,8 hPa 0,0 l/m 0 min 0 min 149 W/m 12,9 km/h (3 Bft) 95,83 %
31.08.2022 18:08 25,2 C 25,6 C 20,6 C 56 % 1019,7 hPa 0,0 l/m 4 min 0 min 186 W/m 16,1 km/h (3 Bft) 96,00 %
31.08.2022 18:10 25,2 C 25,0 C 20,0 C 57 % 1019,7 hPa 0,0 l/m 0 min 0 min 124 W/m 6,4 km/h (2 Bft) 95,74 %
31.08.2022 18:12 25,1 C 25,0 C 20,0 C 57 % 1019,7 hPa 0,0 l/m 0 min 0 min 119 W/m 6,4 km/h (2 Bft) 95,74 %
31.08.2022 18:14 24,9 C 24,4 C 20,0 C 58 % 1019,7 hPa 0,0 l/m 0 min 0 min 98 W/m 9,7 km/h (2 Bft) 95,74 %
31.08.2022 18:16 24,8 C 24,4 C 20,0 C 58 % 1019,7 hPa 0,0 l/m 0 min 0 min 90 W/m 6,4 km/h (2 Bft) 95,65 %
31.08.2022 18:18 24,8 C 23,9 C 20,0 C 58 % 1019,7 hPa 0,0 l/m 0 min 0 min 83 W/m 9,7 km/h (2 Bft) 93,62 %
31.08.2022 18:20 24,7 C 23,9 C 19,4 C 58 % 1019,7 hPa 0,0 l/m 0 min 0 min 79 W/m 9,7 km/h (2 Bft) 93,62 %
31.08.2022 18:22 24,6 C 23,9 C 19,4 C 58 % 1019,7 hPa 0,0 l/m 0 min 0 min 77 W/m 9,7 km/h (2 Bft) 95,74 %
31.08.2022 18:24 24,5 C 23,3 C 19,4 C 59 % 1019,7 hPa 0,0 l/m 0 min 0 min 78 W/m 6,4 km/h (2 Bft) 95,74 %
31.08.2022 18:26 24,4 C 23,3 C 19,4 C 59 % 1019,7 hPa 0,0 l/m 0 min 0 min 82 W/m 6,4 km/h (2 Bft) 94,74 %
31.08.2022 18:28 24,3 C 23,3 C 19,4 C 58 % 1019,7 hPa 0,0 l/m 0 min 0 min 83 W/m 12,9 km/h (3 Bft) 95,74 %
31.08.2022 18:30 24,3 C 23,3 C 19,4 C 58 % 1019,7 hPa 0,0 l/m 0 min 0 min 84 W/m 9,7 km/h (2 Bft) 95,65 %
31.08.2022 18:32 24,3 C 23,3 C 18,9 C 58 % 1019,7 hPa 0,0 l/m 0 min 0 min 82 W/m 16,1 km/h (3 Bft) 95,74 %
31.08.2022 18:34 24,2 C 23,3 C 19,4 C 57 % 1019,7 hPa 0,0 l/m 0 min 0 min 80 W/m 9,7 km/h (2 Bft) 93,62 %
31.08.2022 18:36 24,2 C 23,3 C 18,9 C 60 % 1019,7 hPa 0,0 l/m 0 min 0 min 76 W/m 3,2 km/h (1 Bft) 94,92 %
31.08.2022 18:38 24,2 C 23,3 C 18,9 C 60 % 1019,7 hPa 0,0 l/m 0 min 0 min 75 W/m 9,7 km/h (2 Bft) 100,00 %
31.08.2022 18:40 24,1 C 23,3 C 17,8 C 60 % 1019,7 hPa 0,0 l/m 0 min 0 min 77 W/m 6,4 km/h (2 Bft) 97,83 %
31.08.2022 18:42 24,0 C 23,3 C 17,2 C 60 % 1019,7 hPa 0,0 l/m 0 min 0 min 77 W/m 9,7 km/h (2 Bft) 95,74 %
31.08.2022 18:44 23,9 C 23,3 C 17,8 C 60 % 1019,7 hPa 0,0 l/m 0 min 0 min 74 W/m 6,4 km/h (2 Bft) 97,87 %
31.08.2022 18:46 23,9 C 23,3 C 17,8 C 61 % 1019,7 hPa 0,0 l/m 0 min 0 min 70 W/m 6,4 km/h (2 Bft) 97,87 %
31.08.2022 18:48 23,9 C 23,3 C 18,3 C 61 % 1019,7 hPa 0,0 l/m 0 min 0 min 68 W/m 9,7 km/h (2 Bft) 97,87 %
31.08.2022 18:50 23,8 C 22,8 C 17,8 C 63 % 1019,7 hPa 0,0 l/m 0 min 0 min 71 W/m 6,4 km/h (2 Bft) 97,87 %
31.08.2022 18:52 23,7 C 22,8 C 18,3 C 60 % 1019,6 hPa 0,0 l/m 0 min 0 min 73 W/m 16,1 km/h (3 Bft) 95,65 %
31.08.2022 18:54 23,7 C 23,3 C 18,3 C 61 % 1019,7 hPa 0,0 l/m 0 min 0 min 76 W/m 6,4 km/h (2 Bft) 97,87 %
31.08.2022 18:56 23,6 C 23,3 C 18,3 C 61 % 1019,7 hPa 0,0 l/m 0 min 0 min 79 W/m 12,9 km/h (3 Bft) 93,62 %
31.08.2022 18:58 23,6 C 23,3 C 18,9 C 60 % 1019,7 hPa 0,0 l/m 0 min 0 min 79 W/m 12,9 km/h (3 Bft) 97,87 %
31.08.2022 19:00 23,6 C 23,3 C 18,9 C 61 % 1019,7 hPa 0,0 l/m 0 min 0 min 80 W/m 16,1 km/h (3 Bft) 97,87 %
31.08.2022 19:02 23,6 C 23,3 C 18,9 C 59 % 1019,7 hPa 0,0 l/m 0 min 0 min 82 W/m 9,7 km/h (2 Bft) 97,87 %
31.08.2022 19:04 23,7 C 23,3 C 18,9 C 60 % 1019,7 hPa 0,0 l/m 0 min 0 min 83 W/m 6,4 km/h (2 Bft) 95,74 %
31.08.2022 19:06 23,7 C 23,3 C 18,9 C 60 % 1019,8 hPa 0,0 l/m 0 min 0 min 83 W/m 9,7 km/h (2 Bft) 97,87 %
31.08.2022 19:08 23,7 C 23,3 C 18,9 C 60 % 1019,7 hPa 0,0 l/m 0 min 0 min 81 W/m 9,7 km/h (2 Bft) 97,87 %
31.08.2022 19:10 23,7 C 23,3 C 18,9 C 60 % 1019,8 hPa 0,0 l/m 0 min 0 min 84 W/m 16,1 km/h (3 Bft) 97,87 %
31.08.2022 19:12 23,7 C 23,3 C 18,9 C 59 % 1019,8 hPa 0,0 l/m 2 min 0 min 89 W/m 6,4 km/h (2 Bft) 97,87 %
31.08.2022 19:14 23,7 C 23,3 C 18,9 C 60 % 1019,7 hPa 0,0 l/m 2 min 0 min 89 W/m 9,7 km/h (2 Bft) 97,87 %
31.08.2022 19:16 23,7 C 23,3 C 18,9 C 59 % 1019,7 hPa 0,0 l/m 2 min 0 min 85 W/m 6,4 km/h (2 Bft) 97,83 %
31.08.2022 19:18 23,7 C 23,3 C 18,9 C 59 % 1019,7 hPa 0,0 l/m 2 min 0 min 84 W/m 6,4 km/h (2 Bft) 100,00 %
31.08.2022 19:20 23,7 C 23,3 C 18,9 C 59 % 1019,7 hPa 0,0 l/m 2 min 0 min 82 W/m 9,7 km/h (2 Bft) 97,87 %
31.08.2022 19:22 23,7 C 23,3 C 18,9 C 58 % 1019,7 hPa 0,0 l/m 2 min 0 min 76 W/m 12,9 km/h (3 Bft) 95,74 %
31.08.2022 19:24 23,7 C 23,3 C 18,9 C 59 % 1019,7 hPa 0,0 l/m 2 min 0 min 73 W/m 9,7 km/h (2 Bft) 97,87 %
31.08.2022 19:26 23,6 C 23,3 C 18,9 C 58 % 1019,7 hPa 0,0 l/m 2 min 0 min 72 W/m 12,9 km/h (3 Bft) 95,74 %
31.08.2022 19:28 23,6 C 23,3 C 18,9 C 59 % 1019,7 hPa 0,0 l/m 2 min 0 min 72 W/m 9,7 km/h (2 Bft) 97,83 %
31.08.2022 19:30 23,6 C 22,8 C 18,9 C 59 % 1019,7 hPa 0,0 l/m 2 min 0 min 69 W/m 9,7 km/h (2 Bft) 97,87 %
31.08.2022 19:32 23,6 C 22,8 C 18,9 C 58 % 1019,7 hPa 0,0 l/m 2 min 0 min 64 W/m 12,9 km/h (3 Bft) 97,87 %
31.08.2022 19:34 23,5 C 22,8 C 18,9 C 58 % 1019,6 hPa 0,0 l/m 2 min 0 min 60 W/m 12,9 km/h (3 Bft) 97,87 %
31.08.2022 19:36 23,5 C 22,8 C 18,9 C 58 % 1019,7 hPa 0,0 l/m 2 min 0 min 56 W/m 9,7 km/h (2 Bft) 97,87 %
31.08.2022 19:38 23,4 C 22,8 C 18,3 C 59 % 1019,7 hPa 0,0 l/m 2 min 0 min 53 W/m 6,4 km/h (2 Bft) 95,74 %
31.08.2022 19:40 23,4 C 22,8 C 18,3 C 58 % 1019,7 hPa 0,0 l/m 2 min 0 min 50 W/m 6,4 km/h (2 Bft) 100,00 %
31.08.2022 19:42 23,4 C 22,8 C 18,3 C 59 % 1019,7 hPa 0,0 l/m 2 min 0 min 47 W/m 6,4 km/h (2 Bft) 97,87 %
31.08.2022 19:44 23,3 C 22,2 C 18,3 C 59 % 1019,7 hPa 0,0 l/m 2 min 0 min 44 W/m 9,7 km/h (2 Bft) 95,74 %
31.08.2022 19:46 23,3 C 22,2 C 18,3 C 58 % 1019,7 hPa 0,0 l/m 2 min 0 min 42 W/m 9,7 km/h (2 Bft) 97,87 %
31.08.2022 19:48 23,2 C 22,2 C 18,3 C 59 % 1019,8 hPa 0,0 l/m 2 min 0 min 40 W/m 9,7 km/h (2 Bft) 100,00 %
31.08.2022 19:50 23,2 C 22,2 C 18,3 C 58 % 1019,8 hPa 0,0 l/m 2 min 0 min 38 W/m 12,9 km/h (3 Bft) 95,74 %
31.08.2022 19:52 23,1 C 22,2 C 18,3 C 58 % 1019,8 hPa 0,0 l/m 2 min 0 min 35 W/m 9,7 km/h (2 Bft) 100,00 %
31.08.2022 19:54 23,1 C 22,2 C 18,3 C 59 % 1019,8 hPa 0,0 l/m 2 min 0 min 33 W/m 6,4 km/h (2 Bft) 95,74 %
31.08.2022 19:56 23,1 C 22,2 C 18,3 C 58 % 1019,8 hPa 0,0 l/m 2 min 0 min 30 W/m 9,7 km/h (2 Bft) 97,87 %
31.08.2022 19:58 23,0 C 22,2 C 18,3 C 59 % 1019,8 hPa 0,0 l/m 2 min 0 min 27 W/m 6,4 km/h (2 Bft) 100,00 %
31.08.2022 20:00 23,0 C 22,2 C 17,8 C 59 % 1019,8 hPa 0,0 l/m 2 min 0 min 25 W/m 12,9 km/h (3 Bft) 100,00 %
31.08.2022 20:02 22,9 C 22,2 C 18,3 C 59 % 1019,8 hPa 0,0 l/m 2 min 0 min 20 W/m 22,5 km/h (4 Bft) 95,74 %
31.08.2022 20:04 22,9 C 22,2 C 18,3 C 59 % 1019,8 hPa 0,0 l/m 0 min 0 min 18 W/m 12,9 km/h (3 Bft) 97,83 %
31.08.2022 20:06 22,9 C 21,7 C 17,8 C 59 % 1019,8 hPa 0,0 l/m 0 min 0 min 17 W/m 6,4 km/h (2 Bft) 97,87 %
31.08.2022 20:08 22,8 C 21,7 C 17,8 C 59 % 1019,9 hPa 0,0 l/m 0 min 0 min 16 W/m 9,7 km/h (2 Bft) 97,87 %
31.08.2022 20:10 22,8 C 21,7 C 17,8 C 59 % 1019,9 hPa 0,0 l/m 0 min 0 min 14 W/m 9,7 km/h (2 Bft) 97,87 %
31.08.2022 20:12 22,7 C 21,7 C 17,8 C 59 % 1019,9 hPa 0,0 l/m 0 min 0 min 12 W/m 9,7 km/h (2 Bft) 97,87 %
31.08.2022 20:14 22,7 C 21,7 C 17,8 C 59 % 1019,9 hPa 0,0 l/m 0 min 0 min 11 W/m 9,7 km/h (2 Bft) 97,87 %
31.08.2022 20:16 22,7 C 21,7 C 17,8 C 59 % 1020,0 hPa 0,0 l/m 0 min 0 min 11 W/m 9,7 km/h (2 Bft) 97,83 %
31.08.2022 20:18 22,6 C 21,7 C 17,8 C 60 % 1020,0 hPa 0,0 l/m 0 min 0 min 9 W/m 6,4 km/h (2 Bft) 95,74 %
31.08.2022 20:20 22,6 C 21,1 C 17,8 C 60 % 1020,0 hPa 0,0 l/m 0 min 0 min 7 W/m 6,4 km/h (2 Bft) 97,87 %
31.08.2022 20:22 22,5 C 21,1 C 17,8 C 60 % 1020,0 hPa 0,0 l/m 0 min 0 min 5 W/m 12,9 km/h (3 Bft) 95,74 %
31.08.2022 20:24 22,4 C 21,1 C 17,2 C 61 % 1020,0 hPa 0,0 l/m 0 min 0 min 3 W/m 12,9 km/h (3 Bft) 95,74 %
31.08.2022 20:26 22,4 C 21,1 C 17,8 C 60 % 1020,1 hPa 0,0 l/m 0 min 0 min 0 W/m 9,7 km/h (2 Bft) 97,87 %
31.08.2022 20:28 22,4 C 21,1 C 17,2 C 61 % 1020,1 hPa 0,0 l/m 0 min 0 min 0 W/m 12,9 km/h (3 Bft) 97,83 %
31.08.2022 20:30 22,3 C 21,1 C 17,2 C 60 % 1020,1 hPa 0,0 l/m 0 min 0 min 0 W/m 12,9 km/h (3 Bft) 97,87 %
31.08.2022 20:32 22,3 C 21,1 C 17,2 C 60 % 1020,1 hPa 0,0 l/m 0 min 0 min 0 W/m 9,7 km/h (2 Bft) 95,74 %
31.08.2022 20:34 22,3 C 21,1 C 17,2 C 61 % 1020,2 hPa 0,0 l/m 0 min 0 min 0 W/m 3,2 km/h (1 Bft) 100,00 %
31.08.2022 20:36 22,2 C 21,1 C 17,2 C 61 % 1020,3 hPa 0,0 l/m 0 min 0 min 0 W/m 12,9 km/h (3 Bft) 100,00 %
31.08.2022 20:38 22,2 C 21,1 C 17,2 C 61 % 1020,3 hPa 0,0 l/m 0 min 0 min 0 W/m 6,4 km/h (2 Bft) 100,00 %
31.08.2022 20:40 22,2 C 21,1 C 17,2 C 61 % 1020,3 hPa 0,0 l/m 0 min 0 min 0 W/m 9,7 km/h (2 Bft) 100,00 %
31.08.2022 20:42 22,1 C 21,1 C 17,2 C 61 % 1020,3 hPa 0,0 l/m 0 min 0 min 0 W/m 12,9 km/h (3 Bft) 100,00 %
31.08.2022 20:44 22,1 C 21,1 C 17,2 C 61 % 1020,3 hPa 0,0 l/m 0 min 0 min 0 W/m 12,9 km/h (3 Bft) 100,00 %
31.08.2022 20:46 22,1 C 20,6 C 17,2 C 61 % 1020,3 hPa 0,0 l/m 0 min 0 min 0 W/m 12,9 km/h (3 Bft) 97,87 %
31.08.2022 20:48 22,0 C 20,6 C 17,2 C 61 % 1020,4 hPa 0,0 l/m 0 min 0 min 0 W/m 9,7 km/h (2 Bft) 100,00 %
31.08.2022 20:50 21,9 C 20,6 C 17,2 C 61 % 1020,4 hPa 0,0 l/m 0 min 0 min 0 W/m 12,9 km/h (3 Bft) 100,00 %
31.08.2022 20:52 21,9 C 20,6 C 17,2 C 62 % 1020,4 hPa 0,0 l/m 0 min 0 min 0 W/m 9,7 km/h (2 Bft) 97,83 %
31.08.2022 20:54 21,8 C 20,6 C 17,2 C 61 % 1020,5 hPa 0,0 l/m 0 min 0 min 0 W/m 6,4 km/h (2 Bft) 97,87 %
31.08.2022 20:56 21,8 C 20,6 C 17,2 C 61 % 1020,5 hPa 0,0 l/m 0 min 0 min 0 W/m 12,9 km/h (3 Bft) 100,00 %
31.08.2022 20:58 21,8 C 20,6 C 16,7 C 62 % 1020,5 hPa 0,0 l/m 0 min 0 min 0 W/m 6,4 km/h (2 Bft) 97,87 %
31.08.2022 21:00 21,7 C 20,6 C 16,7 C 61 % 1020,5 hPa 0,0 l/m 0 min 0 min 0 W/m 16,1 km/h (3 Bft) 100,00 %
31.08.2022 21:02 21,7 C 20,6 C 17,2 C 61 % 1020,5 hPa 0,0 l/m 0 min 0 min 0 W/m 12,9 km/h (3 Bft) 93,62 %
31.08.2022 21:04 21,7 C 20,6 C 17,2 C 62 % 1020,5 hPa 0,0 l/m 0 min 0 min 0 W/m 12,9 km/h (3 Bft) 100,00 %
31.08.2022 21:06 21,7 C 21,1 C 17,2 C 61 % 1020,6 hPa 0,0 l/m 0 min 0 min 0 W/m 16,1 km/h (3 Bft) 97,87 %
31.08.2022 21:08 21,7 C 21,1 C 17,2 C 61 % 1020,7 hPa 0,0 l/m 0 min 0 min 0 W/m 6,4 km/h (2 Bft) 97,87 %
31.08.2022 21:10 21,7 C 21,1 C 17,2 C 61 % 1020,6 hPa 0,0 l/m 0 min 0 min 0 W/m 12,9 km/h (3 Bft) 97,87 %
31.08.2022 21:12 21,7 C 20,6 C 17,2 C 61 % 1020,6 hPa 0,0 l/m 0 min 0 min 0 W/m 9,7 km/h (2 Bft) 95,74 %
31.08.2022 21:14 21,7 C 21,1 C 17,2 C 61 % 1020,7 hPa 0,0 l/m 0 min 0 min 0 W/m 6,4 km/h (2 Bft) 97,83 %
31.08.2022 21:16 21,7 C 20,6 C 17,2 C 61 % 1020,7 hPa 0,0 l/m 0 min 0 min 0 W/m 16,1 km/h (3 Bft) 95,74 %
31.08.2022 21:18 21,7 C 20,6 C 17,2 C 61 % 1020,7 hPa 0,0 l/m 0 min 0 min 0 W/m 12,9 km/h (3 Bft) 97,87 %
31.08.2022 21:20 21,7 C 20,6 C 16,7 C 61 % 1020,7 hPa 0,0 l/m 0 min 0 min 0 W/m 12,9 km/h (3 Bft) 97,87 %
31.08.2022 21:22 21,7 C 20,6 C 16,7 C 62 % 1020,8 hPa 0,0 l/m 0 min 0 min 0 W/m 16,1 km/h (3 Bft) 93,62 %
31.08.2022 21:24 21,6 C 20,6 C 17,2 C 61 % 1020,8 hPa 0,0 l/m 0 min 0 min 0 W/m 12,9 km/h (3 Bft) 97,87 %
31.08.2022 21:26 21,6 C 20,6 C 16,7 C 61 % 1020,8 hPa 0,0 l/m 0 min 0 min 0 W/m 12,9 km/h (3 Bft) 97,83 %
31.08.2022 21:28 21,6 C 20,6 C 16,7 C 61 % 1020,8 hPa 0,0 l/m 0 min 0 min 0 W/m 12,9 km/h (3 Bft) 95,74 %
31.08.2022 21:30 21,6 C 20,6 C 16,7 C 61 % 1020,8 hPa 0,0 l/m 0 min 0 min 0 W/m 9,7 km/h (2 Bft) 97,87 %
31.08.2022 21:32 21,6 C 20,6 C 16,7 C 61 % 1020,8 hPa 0,0 l/m 0 min 0 min 0 W/m 9,7 km/h (2 Bft) 97,87 %
31.08.2022 21:34 21,5 C 20,6 C 16,7 C 61 % 1020,8 hPa 0,0 l/m 0 min 0 min 0 W/m 9,7 km/h (2 Bft) 95,74 %
31.08.2022 21:36 21,4 C 20,6 C 16,7 C 61 % 1020,7 hPa 0,0 l/m 0 min 0 min 0 W/m 12,9 km/h (3 Bft) 95,74 %
31.08.2022 21:38 21,4 C 20,6 C 16,7 C 61 % 1020,7 hPa 0,0 l/m 0 min 0 min 0 W/m 9,7 km/h (2 Bft) 95,65 %
31.08.2022 21:40 21,4 C 20,6 C 16,7 C 61 % 1020,8 hPa 0,0 l/m 0 min 0 min 0 W/m 9,7 km/h (2 Bft) 93,62 %
31.08.2022 21:42 21,4 C 20,6 C 16,7 C 61 % 1020,8 hPa 0,0 l/m 0 min 0 min 0 W/m 12,9 km/h (3 Bft) 95,74 %
31.08.2022 21:44 21,4 C 20,6 C 16,7 C 61 % 1020,8 hPa 0,0 l/m 0 min 0 min 0 W/m 6,4 km/h (2 Bft) 95,74 %
31.08.2022 21:46 21,3 C 20,6 C 16,7 C 61 % 1020,8 hPa 0,0 l/m 0 min 0 min 0 W/m 6,4 km/h (2 Bft) 93,62 %
31.08.2022 21:48 21,3 C 20,6 C 16,7 C 62 % 1020,7 hPa 0,0 l/m 0 min 0 min 0 W/m 19,3 km/h (3 Bft) 93,62 %
31.08.2022 21:50 21,3 C 20,6 C 16,7 C 61 % 1020,7 hPa 0,0 l/m 0 min 0 min 0 W/m 9,7 km/h (2 Bft) 93,62 %
31.08.2022 21:52 21,3 C 20,6 C 16,7 C 61 % 1020,8 hPa 0,0 l/m 0 min 0 min 0 W/m 16,1 km/h (3 Bft) 95,74 %
31.08.2022 21:54 21,3 C 20,6 C 16,7 C 61 % 1020,7 hPa 0,0 l/m 0 min 0 min 0 W/m 9,7 km/h (2 Bft) 93,62 %
31.08.2022 21:56 21,3 C 20,6 C 16,7 C 61 % 1020,8 hPa 0,0 l/m 0 min 0 min 0 W/m 12,9 km/h (3 Bft) 93,48 %
31.08.2022 21:58 21,3 C 20,6 C 16,7 C 61 % 1020,8 hPa 0,0 l/m 0 min 0 min 0 W/m 9,7 km/h (2 Bft) 91,49 %
31.08.2022 22:00 21,3 C 20,6 C 16,7 C 61 % 1020,8 hPa 0,0 l/m 0 min 0 min 0 W/m 12,9 km/h (3 Bft) 95,74 %
31.08.2022 22:02 21,3 C 20,6 C 16,7 C 61 % 1020,8 hPa 0,0 l/m 0 min 0 min 0 W/m 12,9 km/h (3 Bft) 93,62 %
31.08.2022 22:04 21,3 C 20,6 C 16,7 C 61 % 1020,9 hPa 0,0 l/m 0 min 0 min 0 W/m 9,7 km/h (2 Bft) 95,74 %
31.08.2022 22:06 21,3 C 20,6 C 16,7 C 60 % 1020,8 hPa 0,0 l/m 0 min 0 min 0 W/m 12,9 km/h (3 Bft) 95,74 %
31.08.2022 22:08 21,2 C 20,6 C 16,7 C 60 % 1020,8 hPa 0,0 l/m 0 min 0 min 0 W/m 12,9 km/h (3 Bft) 95,65 %
31.08.2022 22:10 21,2 C 20,6 C 16,7 C 60 % 1020,9 hPa 0,0 l/m 0 min 0 min 0 W/m 12,9 km/h (3 Bft) 95,74 %
31.08.2022 22:12 21,2 C 20,6 C 16,7 C 60 % 1020,8 hPa 0,0 l/m 0 min 0 min 0 W/m 12,9 km/h (3 Bft) 95,74 %
31.08.2022 22:14 21,2 C 20,6 C 16,7 C 60 % 1020,8 hPa 0,0 l/m 0 min 0 min 0 W/m 9,7 km/h (2 Bft) 93,62 %
31.08.2022 22:16 21,2 C 20,6 C 16,7 C 60 % 1020,8 hPa 0,0 l/m 0 min 0 min 0 W/m 12,9 km/h (3 Bft) 95,74 %
31.08.2022 22:18 21,2 C 20,0 C 16,7 C 60 % 1020,8 hPa 0,0 l/m 0 min 0 min 0 W/m 12,9 km/h (3 Bft) 95,74 %
31.08.2022 22:20 21,2 C 20,0 C 16,7 C 59 % 1020,7 hPa 0,0 l/m 0 min 0 min 0 W/m 16,1 km/h (3 Bft) 93,48 %
31.08.2022 22:22 21,1 C 20,0 C 16,7 C 59 % 1020,8 hPa 0,0 l/m 0 min 0 min 0 W/m 12,9 km/h (3 Bft) 95,74 %
31.08.2022 22:24 21,1 C 20,0 C 16,7 C 60 % 1020,7 hPa 0,0 l/m 0 min 0 min 0 W/m 12,9 km/h (3 Bft) 97,87 %
31.08.2022 22:26 21,1 C 20,0 C 16,7 C 59 % 1020,8 hPa 0,0 l/m 0 min 0 min 0 W/m 9,7 km/h (2 Bft) 97,87 %
31.08.2022 22:28 21,1 C 20,0 C 16,1 C 59 % 1020,8 hPa 0,0 l/m 0 min 0 min 0 W/m 16,1 km/h (3 Bft) 93,62 %
31.08.2022 22:30 21,0 C 20,0 C 16,1 C 59 % 1020,8 hPa 0,0 l/m 0 min 0 min 0 W/m 9,7 km/h (2 Bft) 100,00 %
31.08.2022 22:32 21,0 C 20,0 C 16,1 C 60 % 1020,8 hPa 0,0 l/m 0 min 0 min 0 W/m 12,9 km/h (3 Bft) 100,00 %
31.08.2022 22:34 20,9 C 20,0 C 16,1 C 59 % 1020,7 hPa 0,0 l/m 0 min 0 min 0 W/m 12,9 km/h (3 Bft) 100,00 %
31.08.2022 22:36 20,9 C 20,0 C 16,1 C 59 % 1020,7 hPa 0,0 l/m 0 min 0 min 0 W/m 16,1 km/h (3 Bft) 97,87 %
31.08.2022 22:38 20,9 C 20,0 C 16,1 C 59 % 1020,7 hPa 0,0 l/m 0 min 0 min 0 W/m 12,9 km/h (3 Bft) 97,87 %
31.08.2022 22:40 20,8 C 20,0 C 16,1 C 59 % 1020,8 hPa 0,0 l/m 0 min 0 min 0 W/m 9,7 km/h (2 Bft) 97,87 %
31.08.2022 22:42 20,8 C 20,0 C 16,1 C 59 % 1020,8 hPa 0,0 l/m 0 min 0 min 0 W/m 19,3 km/h (3 Bft) 97,87 %
31.08.2022 22:44 20,8 C 19,4 C 16,1 C 59 % 1020,7 hPa 0,0 l/m 0 min 0 min 0 W/m 6,4 km/h (2 Bft) 100,00 %
31.08.2022 22:46 20,7 C 19,4 C 16,1 C 59 % 1020,7 hPa 0,0 l/m 0 min 0 min 0 W/m 9,7 km/h (2 Bft) 100,00 %
31.08.2022 22:48 20,7 C 19,4 C 16,1 C 59 % 1020,7 hPa 0,0 l/m 0 min 0 min 0 W/m 12,9 km/h (3 Bft) 100,00 %
31.08.2022 22:50 20,7 C 19,4 C 16,1 C 59 % 1020,7 hPa 0,0 l/m 0 min 0 min 0 W/m 12,9 km/h (3 Bft) 100,00 %
31.08.2022 22:52 20,6 C 19,4 C 16,1 C 59 % 1020,7 hPa 0,0 l/m 0 min 0 min 0 W/m 12,9 km/h (3 Bft) 100,00 %
31.08.2022 22:54 20,6 C 19,4 C 15,6 C 59 % 1020,8 hPa 0,0 l/m 0 min 0 min 0 W/m 9,7 km/h (2 Bft) 100,00 %
31.08.2022 22:56 20,5 C 19,4 C 15,6 C 60 % 1020,8 hPa 0,0 l/m 0 min 0 min 0 W/m 6,4 km/h (2 Bft) 100,00 %
31.08.2022 22:58 20,4 C 19,4 C 15,6 C 60 % 1020,8 hPa 0,0 l/m 0 min 0 min 0 W/m 9,7 km/h (2 Bft) 100,00 %
31.08.2022 23:00 20,4 C 19,4 C 15,6 C 60 % 1020,8 hPa 0,0 l/m 0 min 0 min 0 W/m 9,7 km/h (2 Bft) 100,00 %
31.08.2022 23:02 20,3 C 18,9 C 15,6 C 60 % 1020,8 hPa 0,0 l/m 0 min 0 min 0 W/m 6,4 km/h (2 Bft) 100,00 %
31.08.2022 23:04 20,3 C 18,9 C 15,6 C 60 % 1020,8 hPa 0,0 l/m 0 min 0 min 0 W/m 9,7 km/h (2 Bft) 100,00 %
31.08.2022 23:06 20,3 C 18,9 C 15,6 C 60 % 1020,8 hPa 0,0 l/m 0 min 0 min 0 W/m 6,4 km/h (2 Bft) 97,87 %
31.08.2022 23:08 20,2 C 18,9 C 15,6 C 60 % 1020,8 hPa 0,0 l/m 0 min 0 min 0 W/m 9,7 km/h (2 Bft) 100,00 %
31.08.2022 23:10 20,2 C 18,9 C 15,6 C 60 % 1020,8 hPa 0,0 l/m 0 min 0 min 0 W/m 12,9 km/h (3 Bft) 100,00 %
31.08.2022 23:12 20,2 C 19,4 C 15,6 C 60 % 1020,8 hPa 0,0 l/m 0 min 0 min 0 W/m 9,7 km/h (2 Bft) 100,00 %
31.08.2022 23:14 20,2 C 18,9 C 15,6 C 60 % 1020,8 hPa 0,0 l/m 0 min 0 min 0 W/m 9,7 km/h (2 Bft) 100,00 %
31.08.2022 23:16 20,2 C 18,9 C 15,6 C 60 % 1020,8 hPa 0,0 l/m 0 min 0 min 0 W/m 6,4 km/h (2 Bft) 100,00 %
31.08.2022 23:18 20,1 C 18,9 C 15,6 C 60 % 1020,7 hPa 0,0 l/m 0 min 0 min 0 W/m 9,7 km/h (2 Bft) 97,87 %
31.08.2022 23:20 20,1 C 18,9 C 15,6 C 60 % 1020,7 hPa 0,0 l/m 0 min 0 min 0 W/m 9,7 km/h (2 Bft) 100,00 %
31.08.2022 23:22 20,1 C 18,9 C 15,6 C 61 % 1020,7 hPa 0,0 l/m 0 min 0 min 0 W/m 6,4 km/h (2 Bft) 100,00 %
31.08.2022 23:24 20,1 C 18,9 C 15,6 C 60 % 1020,7 hPa 0,0 l/m 0 min 0 min 0 W/m 6,4 km/h (2 Bft) 100,00 %
31.08.2022 23:26 20,0 C 18,9 C 15,6 C 60 % 1020,7 hPa 0,0 l/m 0 min 0 min 0 W/m 12,9 km/h (3 Bft) 100,00 %
31.08.2022 23:28 19,9 C 18,9 C 15,6 C 60 % 1020,7 hPa 0,0 l/m 0 min 0 min 0 W/m 6,4 km/h (2 Bft) 100,00 %
31.08.2022 23:30 19,9 C 18,9 C 15,6 C 60 % 1020,8 hPa 0,0 l/m 0 min 0 min 0 W/m 6,4 km/h (2 Bft) 100,00 %
31.08.2022 23:32 19,9 C 18,9 C 15,0 C 60 % 1020,7 hPa 0,0 l/m 0 min 0 min 0 W/m 6,4 km/h (2 Bft) 95,65 %
31.08.2022 23:34 19,9 C 18,9 C 15,0 C 61 % 1020,8 hPa 0,0 l/m 0 min 0 min 0 W/m 3,2 km/h (1 Bft) 100,00 %
31.08.2022 23:36 19,8 C 18,9 C 15,0 C 60 % 1020,7 hPa 0,0 l/m 0 min 0 min 0 W/m 9,7 km/h (2 Bft) 100,00 %
31.08.2022 23:38 19,8 C 18,9 C 15,0 C 60 % 1020,7 hPa 0,0 l/m 0 min 0 min 0 W/m 9,7 km/h (2 Bft) 100,00 %
31.08.2022 23:40 19,8 C 18,9 C 15,0 C 60 % 1020,8 hPa 0,0 l/m 0 min 0 min 0 W/m 6,4 km/h (2 Bft) 95,74 %
31.08.2022 23:42 19,7 C 18,9 C 15,0 C 61 % 1020,7 hPa 0,0 l/m 0 min 0 min 0 W/m 6,4 km/h (2 Bft) 100,00 %
31.08.2022 23:44 19,7 C 18,9 C 15,0 C 60 % 1020,8 hPa 0,0 l/m 0 min 0 min 0 W/m 6,4 km/h (2 Bft) 100,00 %
31.08.2022 23:46 19,7 C 18,3 C 15,0 C 61 % 1020,7 hPa 0,0 l/m 0 min 0 min 0 W/m 6,4 km/h (2 Bft) 100,00 %
31.08.2022 23:48 19,6 C 18,3 C 15,0 C 61 % 1020,7 hPa 0,0 l/m 0 min 0 min 0 W/m 6,4 km/h (2 Bft) 97,87 %
31.08.2022 23:50 19,6 C 18,3 C 15,0 C 61 % 1020,8 hPa 0,0 l/m 0 min 0 min 0 W/m 3,2 km/h (1 Bft) 97,87 %
31.08.2022 23:52 19,5 C 18,3 C 14,4 C 62 % 1020,7 hPa 0,0 l/m 0 min 0 min 0 W/m 6,4 km/h (2 Bft) 97,87 %
31.08.2022 23:54 19,4 C 18,3 C 14,4 C 62 % 1020,7 hPa 0,0 l/m 0 min 0 min 0 W/m 6,4 km/h (2 Bft) 97,83 %
31.08.2022 23:56 19,4 C 18,3 C 14,4 C 61 % 1020,8 hPa 0,0 l/m 0 min 0 min 0 W/m 6,4 km/h (2 Bft) 95,74 %
31.08.2022 23:58 19,3 C 18,3 C 14,4 C 62 % 1020,7 hPa 0,0 l/m 0 min 0 min 0 W/m 6,4 km/h (2 Bft) 95,74 %
_ Min-Zeit 07:38 06:28 06:34 17:40 18:52 - - - - 06:34 00:34
Minimum _ 16,2 C 15,6 C 12,2 C 56 % 1019,6 hPa - - - - 0,0 km/h (0 Bft) 91,30 %
_ Max-Zeit 16:48 12:10 12:14 07:42 10:06 00:00 12:08 00:00 13:40 14:54 00:12
Maximum _ 26,0 C 30,6 C 22,8 C 85 % 1021,5 hPa 0,0 l/m 4 min 0 min 835 W/m 32,2 km/h
O-NO (5 Bft)
100,00 %
Durchschnitt _ 21,0 C 20,9 C 16,7 C 67 % 1020,5 hPa #0,0 l/m #5:34 h #0 min. 270 W/m 10,8 km/h (2 Bft) 97,44 %
© 2022 W. Hausmann